AFR249X RPLL-LFPG

Flight info

Callsign AFR249X
Flight time N/A
Altitude 34000
Route SIRCA2R SIRCA L628 DODUS W3 AKOTA A583 SABNO DCT LEGOD DCT BEKOL/K0943S1040 A461 SHL W22 TEPID W24 OSNOV G586 QP B330 ELKAL W179 IGNAK/K0932S1010 W179 WFX/K0926S1040 W179 OMBON Y1 DUMIN/K0913S1100 Y1 SADAN W186 KAMUD/K0898F360 L141 TISIB L163 SR N193 OGOLI T898 NUHEF/K0900F380 T898 DARVA/N0486F380 B476 METKA L88 RASAM N199 EDATA M11 REBLO DCT CRM DCT MAKOL/N0482F400 DCT ORTIP DCT MOPUG DCT ARSIN DCT RENKA L610 STAUB/N0429F240 L610 MAMOR DCT ASPAT DCT VIBOM DCT IDOSA DCT TOLVU DCT RAPOR DCT VEDUS
Aircraft A359/H-SDE2E3GHIJ3J4J5LM1ORWXY/LB1D1

Departure

Time 2026-05-05 04:17
Airport Ninoy Aquino International Airport (RPLL)

Arrival

Time N/A
Airport Charles de Gaulle International Airport (LFPG)
Time Latitude Longitude Altitude Speed Heading
2026-05-05 03:55 14.50432 121.00511 75 ft 0 kts 306°
2026-05-05 04:07 14.50425 121.00520 64 ft 4 kts 306°
2026-05-05 04:07 14.50409 121.00542 64 ft 4 kts 306°
2026-05-05 04:07 14.50394 121.00563 64 ft 2 kts 307°
2026-05-05 04:08 14.50382 121.00579 64 ft 3 kts 306°
2026-05-05 04:08 14.50369 121.00601 64 ft 4 kts 283°
2026-05-05 04:08 14.50367 121.00624 64 ft 4 kts 252°
2026-05-05 04:08 14.50372 121.00638 64 ft 2 kts 240°
2026-05-05 04:09 14.50368 121.00629 64 ft 0 kts 240°
2026-05-05 04:11 14.50367 121.00629 64 ft 0 kts 240°
2026-05-05 04:11 14.50357 121.00610 64 ft 7 kts 240°
2026-05-05 04:11 14.50321 121.00544 64 ft 12 kts 240°
2026-05-05 04:12 14.50278 121.00467 64 ft 12 kts 240°
2026-05-05 04:12 14.50241 121.00400 65 ft 10 kts 240°
2026-05-05 04:12 14.50202 121.00348 71 ft 9 kts 214°
2026-05-05 04:12 14.50146 121.00337 65 ft 9 kts 188°
2026-05-05 04:13 14.50093 121.00286 64 ft 13 kts 237°
2026-05-05 04:13 14.50048 121.00204 68 ft 13 kts 241°
2026-05-05 04:13 14.50004 121.00125 64 ft 12 kts 238°
2026-05-05 04:13 14.49963 121.00052 64 ft 11 kts 240°
2026-05-05 04:14 14.49921 120.99985 66 ft 11 kts 226°
2026-05-05 04:14 14.49863 120.99978 69 ft 8 kts 167°
2026-05-05 04:14 14.49817 121.00005 64 ft 7 kts 136°
2026-05-05 04:14 14.49811 121.00047 68 ft 5 kts 75°
2026-05-05 04:15 14.49815 121.00055 68 ft 0 kts 65°
2026-05-05 04:16 14.49817 121.00060 68 ft 6 kts 64°
2026-05-05 04:16 14.49857 121.00139 64 ft 37 kts 62°
2026-05-05 04:16 14.50100 121.00576 67 ft 102 kts 60°
2026-05-05 04:17 14.50553 121.01388 76 ft 158 kts 60°
2026-05-05 04:17 14.51188 121.02507 264 ft 193 kts 62°
2026-05-05 04:17 14.51874 121.03694 1072 ft 195 kts 62°
2026-05-05 04:17 14.52536 121.04910 1752 ft 191 kts 63°
2026-05-05 04:18 14.53197 121.06139 2077 ft 202 kts 62°
2026-05-05 04:18 14.53910 121.07440 2329 ft 216 kts 62°
2026-05-05 04:18 14.54678 121.08833 2542 ft 231 kts 61°
2026-05-05 04:18 14.55491 121.10307 2894 ft 240 kts 62°
2026-05-05 04:19 14.56370 121.11820 3350 ft 245 kts 56°
2026-05-05 04:19 14.57602 121.13020 3757 ft 252 kts 30°
2026-05-05 04:19 14.59324 121.13494 4253 ft 257 kts
2026-05-05 04:19 14.61124 121.13513 4762 ft 260 kts
2026-05-05 04:20 14.62944 121.13491 5236 ft 263 kts
2026-05-05 04:20 14.64776 121.13486 5720 ft 265 kts
2026-05-05 04:20 14.66632 121.13451 6135 ft 270 kts 357°
2026-05-05 04:20 14.68429 121.12853 6580 ft 277 kts 328°
2026-05-05 04:21 14.69737 121.11389 6974 ft 284 kts 297°
2026-05-05 04:21 14.70175 121.09399 7390 ft 288 kts 270°
2026-05-05 04:21 14.70149 121.07333 7896 ft 288 kts 268°
2026-05-05 04:21 14.70096 121.05288 8365 ft 290 kts 268°
2026-05-05 04:22 14.70056 121.03166 8858 ft 292 kts 269°
2026-05-05 04:22 14.70025 121.01065 9342 ft 293 kts 268°
2026-05-05 04:22 14.69750 120.99006 9758 ft 296 kts 252°
2026-05-05 04:22 14.69069 120.96969 10043 ft 304 kts 248°
2026-05-05 04:23 14.68297 120.94894 10246 ft 315 kts 248°
2026-05-05 04:23 14.67506 120.92745 10471 ft 326 kts 248°
2026-05-05 04:23 14.66696 120.90516 10676 ft 337 kts 248°
2026-05-05 04:23 14.65853 120.88185 10853 ft 347 kts 249°
2026-05-05 04:24 14.65010 120.85845 11031 ft 357 kts 249°
2026-05-05 04:24 14.64130 120.83401 11195 ft 367 kts 249°
2026-05-05 04:24 14.63231 120.80899 11366 ft 376 kts 249°
2026-05-05 04:25 14.61363 120.75719 11678 ft 393 kts 249°
2026-05-05 04:25 14.60402 120.73056 11842 ft 399 kts 249°
2026-05-05 04:25 14.59428 120.70356 12118 ft 402 kts 249°
2026-05-05 04:25 14.58455 120.67658 12429 ft 405 kts 249°
2026-05-05 04:26 14.57470 120.64928 12731 ft 407 kts 249°
2026-05-05 04:26 14.56499 120.62238 13042 ft 408 kts 249°
2026-05-05 04:26 14.55509 120.59499 13358 ft 410 kts 249°
2026-05-05 04:26 14.54508 120.56729 13719 ft 412 kts 249°
2026-05-05 04:27 14.53505 120.53942 14000 ft 415 kts 249°
2026-05-05 04:27 14.52496 120.51154 14278 ft 417 kts 249°
2026-05-05 04:27 14.51477 120.48342 14576 ft 418 kts 249°
2026-05-05 04:27 14.50460 120.45533 14845 ft 420 kts 249°
2026-05-05 04:28 14.49439 120.42707 15103 ft 421 kts 249°
2026-05-05 04:28 14.48409 120.39861 15404 ft 423 kts 249°
2026-05-05 04:28 14.47373 120.37009 15737 ft 424 kts 249°
2026-05-05 04:28 14.46384 120.34148 16010 ft 425 kts 253°
2026-05-05 04:29 14.45786 120.31147 16271 ft 427 kts 261°
2026-05-05 04:29 14.45461 120.28107 16542 ft 428 kts 265°
2026-05-05 04:29 14.45263 120.25031 16807 ft 429 kts 266°
2026-05-05 04:29 14.45111 120.21960 17087 ft 430 kts 267°
2026-05-05 04:30 14.44963 120.18911 17356 ft 431 kts 266°
2026-05-05 04:30 14.44793 120.15777 17616 ft 433 kts 266°
2026-05-05 04:30 14.44603 120.12717 17887 ft 434 kts 266°
2026-05-05 04:30 14.44392 120.09605 18145 ft 435 kts 265°
2026-05-05 04:31 14.44174 120.06498 18366 ft 436 kts 265°
2026-05-05 04:31 14.43947 120.03365 18572 ft 438 kts 265°
2026-05-05 04:31 14.43719 120.00238 18773 ft 439 kts 265°
2026-05-05 04:31 14.43489 119.97085 18992 ft 440 kts 265°
2026-05-05 04:32 14.43260 119.93938 19205 ft 441 kts 265°
2026-05-05 04:32 14.43034 119.90770 19411 ft 443 kts 265°
2026-05-05 04:32 14.42805 119.87594 19631 ft 444 kts 265°
2026-05-05 04:32 14.42575 119.84421 19817 ft 445 kts 265°
2026-05-05 04:33 14.42343 119.81234 20035 ft 446 kts 265°
2026-05-05 04:33 14.42109 119.78029 20234 ft 448 kts 265°
2026-05-05 04:33 14.41879 119.74823 20442 ft 449 kts 265°
2026-05-05 04:33 14.41646 119.71614 20650 ft 450 kts 265°
2026-05-05 04:34 14.41409 119.68389 20869 ft 451 kts 265°
2026-05-05 04:34 14.41170 119.65148 21073 ft 453 kts 265°
2026-05-05 04:34 14.40932 119.61909 21272 ft 454 kts 265°
2026-05-05 04:34 14.40710 119.58662 21479 ft 456 kts 267°
2026-05-05 04:35 14.40786 119.55375 21666 ft 458 kts 276°
2026-05-05 04:35 14.41371 119.52152 21869 ft 460 kts 286°
2026-05-05 04:35 14.42527 119.49081 22066 ft 461 kts 297°
2026-05-05 04:35 14.44256 119.46283 22272 ft 463 kts 308°
2026-05-05 04:36 14.46332 119.43738 22487 ft 464 kts 311°
2026-05-05 04:36 14.48519 119.41291 22678 ft 466 kts 313°
2026-05-05 04:36 14.50774 119.38866 22904 ft 467 kts 314°
2026-05-05 04:36 14.53031 119.36460 23131 ft 469 kts 314°
2026-05-05 04:37 14.55302 119.34024 23326 ft 470 kts 314°
2026-05-05 04:37 14.57535 119.31605 23529 ft 472 kts 313°
2026-05-05 04:37 14.59821 119.29107 23705 ft 473 kts 313°
2026-05-05 04:37 14.62048 119.26657 23858 ft 475 kts 313°
2026-05-05 04:38 14.64332 119.24137 24053 ft 476 kts 313°
2026-05-05 04:38 14.66567 119.21668 24250 ft 477 kts 313°
2026-05-05 04:38 14.68830 119.19165 24431 ft 478 kts 313°
2026-05-05 04:38 14.71131 119.16621 24629 ft 479 kts 313°
2026-05-05 04:39 14.73385 119.14130 24838 ft 480 kts 313°
2026-05-05 04:39 14.75663 119.11612 25032 ft 481 kts 313°
2026-05-05 04:39 14.77947 119.09087 25259 ft 482 kts 313°
2026-05-05 04:39 14.80248 119.06545 25470 ft 483 kts 312°
2026-05-05 04:40 14.82541 119.04012 25685 ft 485 kts 312°
2026-05-05 04:40 14.84851 119.01462 25915 ft 486 kts 312°
2026-05-05 04:40 14.87153 118.98914 26151 ft 487 kts 312°
2026-05-05 04:40 14.89469 118.96346 26374 ft 488 kts 312°
2026-05-05 04:41 14.91783 118.93781 26619 ft 489 kts 312°
2026-05-05 04:41 14.94117 118.91203 26874 ft 491 kts 312°
2026-05-05 04:41 14.96453 118.88617 27112 ft 492 kts 312°
2026-05-05 04:41 14.98784 118.86029 27346 ft 493 kts 312°
2026-05-05 04:42 15.01123 118.83431 27592 ft 495 kts 312°
2026-05-05 04:42 15.03477 118.80815 27836 ft 496 kts 312°
2026-05-05 04:42 15.05825 118.78208 28071 ft 497 kts 312°
2026-05-05 04:42 15.08183 118.75588 28301 ft 499 kts 311°
2026-05-05 04:43 15.10553 118.72955 28522 ft 500 kts 311°
2026-05-05 04:43 15.12932 118.70311 28741 ft 501 kts 311°
2026-05-05 04:43 15.15306 118.67673 28958 ft 503 kts 311°
2026-05-05 04:43 15.17660 118.65056 29149 ft 504 kts 311°
2026-05-05 04:44 15.20081 118.62363 29355 ft 505 kts 311°
2026-05-05 04:44 15.22445 118.59733 29541 ft 506 kts 311°
2026-05-05 04:44 15.24852 118.57054 29740 ft 507 kts 311°
2026-05-05 04:44 15.27250 118.54384 29990 ft 507 kts 311°
2026-05-05 04:45 15.29651 118.51711 30236 ft 505 kts 311°
2026-05-05 04:45 15.32033 118.49057 30485 ft 504 kts 311°
2026-05-05 04:45 15.34419 118.46398 30733 ft 503 kts 311°
2026-05-05 04:45 15.36800 118.43744 30974 ft 501 kts 311°
2026-05-05 04:46 15.39170 118.41100 31205 ft 500 kts 311°
2026-05-05 04:46 15.41527 118.38468 31441 ft 499 kts 311°
2026-05-05 04:46 15.43888 118.35829 31678 ft 498 kts 311°
2026-05-05 04:46 15.46236 118.33208 31876 ft 497 kts 311°
2026-05-05 04:47 15.48586 118.30583 32104 ft 496 kts 311°
2026-05-05 04:47 15.50936 118.27959 32318 ft 494 kts 311°
2026-05-05 04:47 15.53269 118.25353 32534 ft 493 kts 311°
2026-05-05 04:47 15.55592 118.22756 32743 ft 492 kts 311°
2026-05-05 04:48 15.57895 118.20180 32946 ft 491 kts 311°
2026-05-05 04:48 15.60244 118.17551 33148 ft 490 kts 311°
2026-05-05 04:48 15.62528 118.14994 33344 ft 489 kts 311°
2026-05-05 04:48 15.64866 118.12376 33526 ft 488 kts 311°
2026-05-05 04:49 15.67135 118.09834 33740 ft 487 kts 311°
2026-05-05 04:49 15.69440 118.07251 33880 ft 487 kts 311°
2026-05-05 04:49 15.71740 118.04672 33896 ft 490 kts 311°
2026-05-05 04:50 15.76375 117.99472 33886 ft 491 kts 311°
2026-05-05 04:50 15.81013 117.94267 33887 ft 491 kts 311°
2026-05-05 04:51 15.85649 117.89060 33891 ft 490 kts 311°
2026-05-05 04:51 15.90276 117.83859 33889 ft 490 kts 311°
2026-05-05 04:52 15.94909 117.78647 33892 ft 490 kts 311°
2026-05-05 04:52 15.99536 117.73438 33894 ft 490 kts 311°
2026-05-05 04:53 16.04124 117.68270 33886 ft 490 kts 311°
2026-05-05 04:53 16.08747 117.63058 33885 ft 490 kts 311°
2026-05-05 04:54 16.13372 117.57839 33888 ft 490 kts 311°
2026-05-05 04:54 16.17994 117.52621 33891 ft 490 kts 311°
2026-05-05 04:55 16.22611 117.47405 33892 ft 491 kts 311°
2026-05-05 04:55 16.27233 117.42178 33894 ft 491 kts 311°
2026-05-05 04:56 16.31852 117.36952 33891 ft 490 kts 311°
2026-05-05 04:56 16.36478 117.31713 33889 ft 491 kts 311°
2026-05-05 04:57 16.41093 117.26484 33891 ft 490 kts 311°
2026-05-05 04:57 16.45876 117.21480 33892 ft 493 kts 320°
2026-05-05 04:58 16.51654 117.17731 33892 ft 495 kts 330°
2026-05-05 04:58 16.57743 117.14461 33897 ft 497 kts 331°
2026-05-05 04:59 16.63918 117.11228 33881 ft 497 kts 331°
2026-05-05 04:59 16.70081 117.07975 33898 ft 496 kts 330°
2026-05-05 05:00 16.76235 117.04700 33885 ft 496 kts 330°
2026-05-05 05:00 16.82382 117.01419 33893 ft 496 kts 330°
2026-05-05 05:01 16.88531 116.98134 33904 ft 496 kts 330°
2026-05-05 05:01 16.94678 116.94850 33885 ft 496 kts 330°
2026-05-05 05:02 17.00824 116.91564 33892 ft 496 kts 330°
2026-05-05 05:02 17.06971 116.88275 33900 ft 496 kts 330°
2026-05-05 05:03 17.13069 116.85010 33897 ft 496 kts 330°
2026-05-05 05:03 17.19245 116.81701 33892 ft 496 kts 330°
2026-05-05 05:04 17.25390 116.78406 33898 ft 496 kts 330°
2026-05-05 05:04 17.31535 116.75108 33905 ft 496 kts 330°
2026-05-05 05:05 17.37641 116.71829 33896 ft 496 kts 330°
2026-05-05 05:05 17.43779 116.68530 33899 ft 496 kts 330°
2026-05-05 05:06 17.49932 116.65221 33902 ft 496 kts 329°
2026-05-05 05:06 17.56071 116.61917 33905 ft 496 kts 329°
2026-05-05 05:07 17.61167 116.59171 33902 ft 496 kts 329°
2026-05-05 05:07 17.67307 116.55862 33907 ft 496 kts 329°
2026-05-05 05:08 17.73440 116.52554 33906 ft 496 kts 329°
2026-05-05 05:08 17.79573 116.49245 33906 ft 496 kts 329°
2026-05-05 05:09 17.85709 116.45930 33908 ft 496 kts 329°
2026-05-05 05:09 17.91849 116.42608 33910 ft 496 kts 329°
2026-05-05 05:10 17.97977 116.39290 33910 ft 495 kts 329°
2026-05-05 05:10 18.04107 116.35970 33907 ft 495 kts 329°
2026-05-05 05:11 18.10191 116.32672 33912 ft 495 kts 329°
2026-05-05 05:11 18.16307 116.29354 33912 ft 495 kts 329°
2026-05-05 05:12 18.22416 116.26038 33915 ft 494 kts 329°
2026-05-05 05:12 18.28526 116.22718 33913 ft 494 kts 329°
2026-05-05 05:13 18.34633 116.19397 33918 ft 494 kts 329°
2026-05-05 05:13 18.40731 116.16079 33922 ft 494 kts 329°
2026-05-05 05:14 18.46825 116.12760 33918 ft 493 kts 329°
2026-05-05 05:14 18.52918 116.09439 33919 ft 493 kts 329°
2026-05-05 05:15 18.59006 116.06118 33923 ft 492 kts 329°
2026-05-05 05:15 18.65079 116.02802 33923 ft 491 kts 329°
2026-05-05 05:16 18.71139 115.99491 33923 ft 491 kts 329°
2026-05-05 05:16 18.77213 115.96170 33925 ft 490 kts 329°
2026-05-05 05:17 18.83259 115.92861 33928 ft 490 kts 329°
2026-05-05 05:17 18.89299 115.89553 33928 ft 489 kts 329°
2026-05-05 05:18 18.95297 115.86265 33932 ft 489 kts 329°
2026-05-05 05:18 19.01360 115.82991 33938 ft 489 kts 330°
2026-05-05 05:19 19.07559 115.80031 33938 ft 490 kts 332°
2026-05-05 05:19 19.13805 115.77134 33931 ft 490 kts 332°
2026-05-05 05:20 19.20024 115.74193 33940 ft 489 kts 332°
2026-05-05 05:20 19.26133 115.71265 33938 ft 489 kts 332°
2026-05-05 05:21 19.32318 115.68288 33944 ft 488 kts 332°
2026-05-05 05:21 19.38507 115.65309 33939 ft 488 kts 332°
2026-05-05 05:22 19.44693 115.62330 33944 ft 488 kts 332°
2026-05-05 05:22 19.50883 115.59348 33949 ft 488 kts 331°
2026-05-05 05:23 19.57026 115.56386 33941 ft 488 kts 331°
2026-05-05 05:23 19.63213 115.53401 33953 ft 488 kts 332°
2026-05-05 05:24 19.69382 115.50421 33935 ft 488 kts 331°
2026-05-05 05:24 19.75577 115.47426 33941 ft 488 kts 331°
2026-05-05 05:25 19.81748 115.44440 33957 ft 488 kts 331°
2026-05-05 05:25 19.87944 115.41440 33950 ft 489 kts 332°
2026-05-05 05:26 19.94114 115.38450 33955 ft 489 kts 331°
2026-05-05 05:26 20.00304 115.35448 33956 ft 489 kts 331°
2026-05-05 05:27 20.06488 115.32446 33952 ft 489 kts 331°
2026-05-05 05:27 20.15775 115.27932 33958 ft 489 kts 331°
2026-05-05 05:28 20.21966 115.24920 33962 ft 489 kts 331°
2026-05-05 05:28 20.28151 115.21907 33961 ft 489 kts 331°
2026-05-05 05:29 20.34301 115.18910 33957 ft 489 kts 331°
2026-05-05 05:29 20.40379 115.15945 33958 ft 488 kts 331°
2026-05-05 05:30 20.46558 115.12928 33959 ft 488 kts 331°
2026-05-05 05:30 20.52733 115.09910 33961 ft 488 kts 331°
2026-05-05 05:31 20.58904 115.06891 33964 ft 488 kts 331°
2026-05-05 05:31 20.65077 115.03869 33964 ft 488 kts 331°
2026-05-05 05:32 20.71240 115.00849 33963 ft 488 kts 331°
2026-05-05 05:32 20.77409 114.97824 33969 ft 488 kts 331°
2026-05-05 05:33 20.83593 114.94788 33967 ft 488 kts 331°
2026-05-05 05:33 20.89709 114.91783 33971 ft 488 kts 331°
2026-05-05 05:34 20.95876 114.88756 33971 ft 488 kts 331°
2026-05-05 05:34 21.02087 114.85818 33972 ft 488 kts 332°
2026-05-05 05:35 21.08307 114.82916 33977 ft 487 kts 332°
2026-05-05 05:35 21.14521 114.80001 33976 ft 487 kts 332°
2026-05-05 05:36 21.20604 114.77133 33976 ft 487 kts 332°
2026-05-05 05:36 21.26785 114.74212 33973 ft 486 kts 331°
2026-05-05 05:37 21.32982 114.71282 33977 ft 486 kts 331°
2026-05-05 05:37 21.39166 114.68355 33978 ft 485 kts 331°
2026-05-05 05:38 21.45360 114.65421 33979 ft 485 kts 331°
2026-05-05 05:38 21.51515 114.62502 33984 ft 485 kts 331°
2026-05-05 05:39 21.57692 114.59571 33982 ft 484 kts 331°
2026-05-05 05:39 21.63804 114.56668 33988 ft 483 kts 331°
2026-05-05 05:40 21.69954 114.53744 33988 ft 483 kts 331°
2026-05-05 05:40 21.76095 114.50821 33992 ft 482 kts 331°
2026-05-05 05:41 21.82227 114.47900 33993 ft 482 kts 331°
2026-05-05 05:41 21.88350 114.44981 33994 ft 481 kts 330°
2026-05-05 05:42 21.94465 114.42062 33997 ft 480 kts 330°
2026-05-05 05:42 22.00568 114.39147 33997 ft 479 kts 330°
2026-05-05 05:43 22.06656 114.36236 34001 ft 478 kts 330°
2026-05-05 05:43 22.12740 114.33324 33999 ft 478 kts 330°
2026-05-05 05:44 22.18813 114.30415 34004 ft 477 kts 330°
2026-05-05 05:44 22.24876 114.27507 34008 ft 477 kts 330°
2026-05-05 05:45 22.30942 114.24595 34007 ft 477 kts 330°
2026-05-05 05:45 22.36979 114.21698 34012 ft 477 kts 330°
2026-05-05 05:46 22.43025 114.18790 34009 ft 476 kts 330°
2026-05-05 05:46 22.49076 114.15879 34015 ft 476 kts 330°
2026-05-05 05:47 22.55115 114.12970 34122 ft 475 kts 329°
2026-05-05 05:47 22.61083 114.09959 34118 ft 472 kts 328°
2026-05-05 05:48 22.67003 114.06867 34122 ft 472 kts 328°
2026-05-05 05:48 22.72929 114.03789 34125 ft 472 kts 328°
2026-05-05 05:49 22.78851 114.00734 34122 ft 471 kts 328°
2026-05-05 05:49 22.84776 113.97682 34122 ft 471 kts 328°
2026-05-05 05:50 22.90683 113.94638 34123 ft 471 kts 328°
2026-05-05 05:50 22.96593 113.91578 34122 ft 470 kts 328°
2026-05-05 05:51 23.02498 113.88494 34121 ft 470 kts 328°
2026-05-05 05:51 23.08279 113.85236 34119 ft 463 kts 320°
2026-05-05 05:52 23.13183 113.80860 34122 ft 454 kts 311°
2026-05-05 05:52 23.17760 113.76118 34122 ft 454 kts 310°
2026-05-05 05:53 23.22270 113.71349 34120 ft 453 kts 310°
2026-05-05 05:53 23.26808 113.66566 34124 ft 453 kts 310°
2026-05-05 05:54 23.31306 113.61846 34117 ft 453 kts 311°
2026-05-05 05:54 23.35865 113.57064 34122 ft 452 kts 310°
2026-05-05 05:55 23.40367 113.52335 34121 ft 452 kts 310°
2026-05-05 05:55 23.44887 113.47583 34121 ft 452 kts 310°
2026-05-05 05:56 23.49411 113.42824 34120 ft 452 kts 310°
2026-05-05 05:56 23.53927 113.38066 34121 ft 451 kts 310°
2026-05-05 05:57 23.58415 113.33285 34122 ft 451 kts 310°
2026-05-05 05:57 23.62865 113.28475 34123 ft 450 kts 310°
2026-05-05 05:58 23.66876 113.23320 34118 ft 442 kts 298°
2026-05-05 05:58 23.69685 113.17431 34120 ft 438 kts 292°
2026-05-05 05:59 23.72197 113.11365 34112 ft 437 kts 291°
2026-05-05 05:59 23.74794 113.05373 34115 ft 440 kts 297°
2026-05-05 06:00 23.77848 113.00897 34113 ft 447 kts 309°
2026-05-05 06:00 23.82840 112.96731 34108 ft 461 kts 325°
2026-05-05 06:01 23.89945 112.93834 34101 ft 473 kts 335°
2026-05-05 06:01 23.95232 112.92135 34105 ft 474 kts 336°
2026-05-05 06:02 24.01556 112.90106 34106 ft 473 kts 335°
2026-05-05 06:02 24.07854 112.88026 34103 ft 472 kts 335°
2026-05-05 06:03 24.14141 112.85929 34104 ft 472 kts 335°
2026-05-05 06:03 24.20429 112.83840 34100 ft 472 kts 335°
2026-05-05 06:04 24.26703 112.81752 34099 ft 471 kts 335°
2026-05-05 06:04 24.32970 112.79661 34098 ft 471 kts 335°
2026-05-05 06:05 24.39163 112.77433 34099 ft 464 kts 329°
2026-05-05 06:05 24.44591 112.73851 34102 ft 448 kts 314°
2026-05-05 06:06 24.48629 112.68872 34090 ft 436 kts 299°
2026-05-05 06:06 24.51098 112.62865 34088 ft 431 kts 284°
2026-05-05 06:07 24.51851 112.56380 34088 ft 431 kts 270°
2026-05-05 06:07 24.51602 112.49793 34087 ft 432 kts 274°
2026-05-05 06:08 24.52045 112.43200 34085 ft 433 kts 276°
2026-05-05 06:08 24.52647 112.36627 34089 ft 432 kts 276°
2026-05-05 06:09 24.53288 112.30069 34085 ft 432 kts 277°
2026-05-05 06:09 24.53926 112.23503 34089 ft 432 kts 276°
2026-05-05 06:10 24.54551 112.16948 34090 ft 433 kts 276°
2026-05-05 06:10 24.55177 112.10375 34090 ft 432 kts 276°
2026-05-05 06:11 24.55792 112.03837 34089 ft 433 kts 276°
2026-05-05 06:11 24.56404 111.97266 34087 ft 433 kts 276°
2026-05-05 06:12 24.57017 111.90690 34088 ft 433 kts 276°
2026-05-05 06:12 24.57628 111.84110 34085 ft 433 kts 276°
2026-05-05 06:13 24.58236 111.77535 34085 ft 433 kts 276°
2026-05-05 06:13 24.58842 111.70937 34091 ft 433 kts 277°
2026-05-05 06:14 24.59445 111.64356 34087 ft 433 kts 276°
2026-05-05 06:14 24.60043 111.57767 34087 ft 433 kts 276°
2026-05-05 06:15 24.60638 111.51185 34086 ft 434 kts 276°
2026-05-05 06:15 24.61233 111.44593 34084 ft 433 kts 276°
2026-05-05 06:16 24.61828 111.37997 34086 ft 433 kts 276°
2026-05-05 06:16 24.62411 111.31457 34086 ft 434 kts 276°
2026-05-05 06:17 24.62993 111.24860 34087 ft 434 kts 276°
2026-05-05 06:17 24.63563 111.18248 34084 ft 434 kts 276°
2026-05-05 06:18 24.64128 111.11640 34082 ft 434 kts 276°
2026-05-05 06:18 24.64690 111.05047 34081 ft 434 kts 276°
2026-05-05 06:19 24.65256 110.98423 34079 ft 435 kts 276°
2026-05-05 06:19 24.65819 110.91799 34081 ft 435 kts 276°
2026-05-05 06:20 24.66428 110.85170 34072 ft 435 kts 279°
2026-05-05 06:20 24.68089 110.78805 34073 ft 436 kts 293°
2026-05-05 06:21 24.71369 110.73168 34072 ft 442 kts 308°
2026-05-05 06:21 24.75694 110.68391 34076 ft 445 kts 312°
2026-05-05 06:22 24.80201 110.63717 34075 ft 446 kts 312°
2026-05-05 06:22 24.84707 110.59031 34077 ft 445 kts 312°
2026-05-05 06:23 24.89179 110.54330 34072 ft 445 kts 312°
2026-05-05 06:23 24.93653 110.49603 34074 ft 444 kts 312°
2026-05-05 06:24 24.98105 110.44893 34072 ft 444 kts 312°
2026-05-05 06:24 25.02565 110.40176 34073 ft 445 kts 312°
2026-05-05 06:25 25.07040 110.35452 34067 ft 445 kts 312°
2026-05-05 06:25 25.11509 110.30726 34061 ft 445 kts 312°
2026-05-05 06:26 25.15989 110.25984 34053 ft 445 kts 312°
2026-05-05 06:26 25.20443 110.21268 34045 ft 445 kts 312°
2026-05-05 06:27 25.27185 110.14201 34039 ft 445 kts 313°
2026-05-05 06:28 25.31654 110.09523 34042 ft 445 kts 313°
2026-05-05 06:28 25.36146 110.04814 34046 ft 445 kts 313°
2026-05-05 06:29 25.40633 110.00102 34052 ft 445 kts 313°
2026-05-05 06:29 25.45119 109.95384 34059 ft 445 kts 313°
2026-05-05 06:30 25.49598 109.90671 34062 ft 445 kts 313°
2026-05-05 06:30 25.54074 109.85955 34064 ft 444 kts 313°
2026-05-05 06:31 25.58555 109.81231 34067 ft 445 kts 313°
2026-05-05 06:31 25.63035 109.76499 34065 ft 445 kts 313°
2026-05-05 06:32 25.67519 109.71759 34065 ft 445 kts 313°
2026-05-05 06:32 25.71998 109.67020 34064 ft 445 kts 313°
2026-05-05 06:33 25.76155 109.61988 34059 ft 441 kts 303°
2026-05-05 06:33 25.78965 109.55997 34066 ft 438 kts 289°
2026-05-05 06:34 25.80779 109.49556 34065 ft 438 kts 287°
2026-05-05 06:34 25.82450 109.43038 34065 ft 439 kts 286°
2026-05-05 06:35 25.84121 109.36549 34062 ft 440 kts 287°
2026-05-05 06:35 25.85828 109.30020 34067 ft 440 kts 287°
2026-05-05 06:36 25.87531 109.23514 34066 ft 440 kts 287°
2026-05-05 06:36 25.89242 109.16971 34068 ft 441 kts 287°
2026-05-05 06:37 25.90951 109.10425 34070 ft 441 kts 287°
2026-05-05 06:37 25.92650 109.03894 34074 ft 441 kts 287°
2026-05-05 06:38 25.94387 108.97352 34073 ft 442 kts 287°
2026-05-05 06:38 25.96135 108.90801 34075 ft 442 kts 287°
2026-05-05 06:39 25.97871 108.84262 34069 ft 441 kts 287°
2026-05-05 06:39 25.99606 108.77696 34072 ft 442 kts 287°
2026-05-05 06:40 26.01334 108.71146 34080 ft 442 kts 288°
2026-05-05 06:40 26.03083 108.64610 34078 ft 442 kts 287°
2026-05-05 06:41 26.04828 108.58047 34077 ft 443 kts 287°
2026-05-05 06:41 26.06571 108.51471 34082 ft 443 kts 287°
2026-05-05 06:42 26.08310 108.44890 34088 ft 443 kts 287°
2026-05-05 06:42 26.10296 108.38432 34087 ft 442 kts 294°
2026-05-05 06:43 26.12894 108.32217 34089 ft 443 kts 295°
2026-05-05 06:43 26.15582 108.26032 34089 ft 444 kts 295°
2026-05-05 06:44 26.18273 108.19851 34091 ft 443 kts 296°
2026-05-05 06:44 26.20949 108.13671 34091 ft 444 kts 295°
2026-05-05 06:45 26.23621 108.07470 34092 ft 444 kts 295°
2026-05-05 06:45 26.26287 108.01271 34098 ft 444 kts 295°
2026-05-05 06:46 26.28927 107.95123 34092 ft 443 kts 295°
2026-05-05 06:46 26.31590 107.88921 34092 ft 444 kts 295°
2026-05-05 06:47 26.34253 107.82707 34090 ft 444 kts 295°
2026-05-05 06:47 26.36917 107.76485 34086 ft 444 kts 295°
2026-05-05 06:48 26.39572 107.70271 34087 ft 445 kts 295°
2026-05-05 06:48 26.42236 107.64029 34091 ft 445 kts 295°
2026-05-05 06:49 26.44873 107.57837 34094 ft 446 kts 295°
2026-05-05 06:49 26.47527 107.51594 34099 ft 445 kts 295°
2026-05-05 06:50 26.50199 107.45308 34097 ft 446 kts 295°
2026-05-05 06:50 26.52846 107.39047 34099 ft 446 kts 295°
2026-05-05 06:51 26.55476 107.32826 34097 ft 446 kts 296°
2026-05-05 06:51 26.58127 107.26566 34100 ft 446 kts 295°
2026-05-05 06:52 26.60776 107.20297 34099 ft 446 kts 295°
2026-05-05 06:52 26.63423 107.14024 34100 ft 447 kts 296°
2026-05-05 06:53 26.66084 107.07752 34098 ft 447 kts 296°
2026-05-05 06:53 26.68321 107.02493 34095 ft 447 kts 296°
2026-05-05 06:54 26.70968 106.96258 34095 ft 447 kts 296°
2026-05-05 06:54 26.73632 106.89969 34090 ft 447 kts 296°
2026-05-05 06:55 26.76284 106.83694 34094 ft 447 kts 296°
2026-05-05 06:55 26.79497 106.77759 34094 ft 447 kts 308°
2026-05-05 06:56 26.83907 106.72834 34088 ft 449 kts 316°
2026-05-05 06:56 26.88608 106.68228 34080 ft 450 kts 317°
2026-05-05 06:57 26.93352 106.63639 34072 ft 450 kts 317°
2026-05-05 06:57 26.98070 106.59038 34066 ft 450 kts 317°
2026-05-05 06:58 27.02783 106.54415 34057 ft 450 kts 317°
2026-05-05 06:58 27.07491 106.49785 34047 ft 450 kts 317°
2026-05-05 06:59 27.12197 106.45148 34036 ft 450 kts 317°
2026-05-05 06:59 27.16903 106.40511 34033 ft 450 kts 317°
2026-05-05 07:00 27.21614 106.35876 34025 ft 451 kts 317°
2026-05-05 07:00 27.26356 106.31262 34013 ft 451 kts 317°
2026-05-05 07:01 27.31067 106.26685 34006 ft 450 kts 317°
2026-05-05 07:01 27.35798 106.22078 34004 ft 450 kts 317°
2026-05-05 07:02 27.40523 106.17468 33999 ft 450 kts 317°
2026-05-05 07:02 27.45259 106.12841 33990 ft 451 kts 317°
2026-05-05 07:03 27.49987 106.08213 33979 ft 451 kts 317°
2026-05-05 07:03 27.54717 106.03580 33974 ft 450 kts 317°
2026-05-05 07:04 27.59451 105.98935 33962 ft 451 kts 317°
2026-05-05 07:04 27.64171 105.94301 33959 ft 451 kts 317°
2026-05-05 07:05 27.68890 105.89632 33952 ft 451 kts 316°
2026-05-05 07:05 27.72868 105.84193 33944 ft 450 kts 301°
2026-05-05 07:06 27.75373 105.77730 33933 ft 452 kts 290°
2026-05-05 07:06 27.77294 105.70945 33930 ft 454 kts 289°
2026-05-05 07:07 27.79139 105.64136 33925 ft 455 kts 289°
2026-05-05 07:07 27.81394 105.57494 33917 ft 453 kts 295°
2026-05-05 07:08 27.83879 105.51003 33905 ft 452 kts 295°
2026-05-05 07:08 27.86425 105.44457 33893 ft 453 kts 295°
2026-05-05 07:09 27.88951 105.37935 33879 ft 453 kts 295°
2026-05-05 07:09 27.91685 105.31594 33864 ft 451 kts 299°
2026-05-05 07:10 27.94585 105.25297 33856 ft 452 kts 299°
2026-05-05 07:10 27.97837 105.19225 33846 ft 451 kts 309°
2026-05-05 07:11 28.02371 105.14328 33841 ft 453 kts 324°
2026-05-05 07:11 28.07662 105.10462 33835 ft 454 kts 327°
2026-05-05 07:12 28.13061 105.06743 33831 ft 454 kts 327°
2026-05-05 07:12 28.18460 105.03015 33831 ft 454 kts 327°
2026-05-05 07:13 28.23829 104.99271 33832 ft 454 kts 327°
2026-05-05 07:13 28.29208 104.95498 33831 ft 454 kts 326°
2026-05-05 07:14 28.34577 104.91725 33833 ft 454 kts 326°
2026-05-05 07:14 28.39958 104.87946 33836 ft 455 kts 327°
2026-05-05 07:15 28.45351 104.84178 33837 ft 455 kts 327°
2026-05-05 07:15 28.50744 104.80406 33839 ft 455 kts 327°
2026-05-05 07:16 28.56147 104.76623 33842 ft 455 kts 327°
2026-05-05 07:16 28.61529 104.72850 33841 ft 455 kts 327°
2026-05-05 07:17 28.66927 104.69062 33845 ft 456 kts 327°
2026-05-05 07:17 28.72323 104.65270 33838 ft 456 kts 327°
2026-05-05 07:18 28.77714 104.61475 33845 ft 456 kts 327°
2026-05-05 07:18 28.83110 104.57674 33849 ft 456 kts 327°
2026-05-05 07:19 28.88503 104.53871 33854 ft 456 kts 326°
2026-05-05 07:19 28.93888 104.50032 33850 ft 456 kts 326°
2026-05-05 07:20 28.99273 104.46182 33859 ft 456 kts 326°
2026-05-05 07:20 29.04615 104.42365 33854 ft 456 kts 326°
2026-05-05 07:21 29.10000 104.38518 33863 ft 456 kts 326°
2026-05-05 07:21 29.15377 104.34673 33864 ft 456 kts 326°
2026-05-05 07:22 29.20766 104.30831 33848 ft 457 kts 328°
2026-05-05 07:22 29.26626 104.27981 33861 ft 462 kts 342°
2026-05-05 07:23 29.33048 104.27249 33866 ft 471 kts 360°
2026-05-05 07:23 29.39589 104.28166 33876 ft 475 kts
2026-05-05 07:24 29.46142 104.29337 33871 ft 476 kts
2026-05-05 07:24 29.52685 104.30502 33878 ft 476 kts
2026-05-05 07:25 29.59232 104.31629 33878 ft 476 kts
2026-05-05 07:25 29.65774 104.32743 33879 ft 476 kts
2026-05-05 07:26 29.72324 104.33858 33884 ft 476 kts
2026-05-05 07:26 29.78879 104.34977 33886 ft 476 kts
2026-05-05 07:27 29.85432 104.36100 33886 ft 476 kts
2026-05-05 07:27 29.91984 104.37222 33890 ft 476 kts
2026-05-05 07:28 29.98548 104.38347 33885 ft 476 kts
2026-05-05 07:28 30.05100 104.39472 33885 ft 476 kts
2026-05-05 07:29 30.11606 104.40591 33883 ft 476 kts
2026-05-05 07:29 30.18158 104.41729 33875 ft 476 kts
2026-05-05 07:30 30.24701 104.42869 33873 ft 476 kts
2026-05-05 07:30 30.34532 104.44584 33876 ft 476 kts
2026-05-05 07:31 30.41092 104.45730 33877 ft 476 kts
2026-05-05 07:31 30.47638 104.46876 33882 ft 476 kts
2026-05-05 07:32 30.54196 104.48025 33887 ft 476 kts
2026-05-05 07:32 30.60755 104.48410 33894 ft 468 kts 351°
2026-05-05 07:33 30.67051 104.46777 33891 ft 463 kts 340°
2026-05-05 07:33 30.73169 104.44467 33887 ft 463 kts 339°
2026-05-05 07:34 30.79274 104.42071 33888 ft 463 kts 339°
2026-05-05 07:34 30.85416 104.39776 33883 ft 465 kts 343°
2026-05-05 07:35 30.91869 104.38858 33878 ft 471 kts 353°
2026-05-05 07:35 30.98429 104.38630 33880 ft 472 kts 355°
2026-05-05 07:36 31.04964 104.38498 33886 ft 472 kts 355°
2026-05-05 07:36 31.11543 104.38351 33884 ft 473 kts 355°
2026-05-05 07:37 31.18119 104.38183 33882 ft 473 kts 355°
2026-05-05 07:37 31.24730 104.38007 33886 ft 473 kts 355°
2026-05-05 07:38 31.31304 104.37729 33882 ft 472 kts 353°
2026-05-05 07:38 31.37809 104.37300 33886 ft 472 kts 353°
2026-05-05 07:39 31.44379 104.36875 33889 ft 472 kts 353°
2026-05-05 07:39 31.50927 104.36482 33895 ft 472 kts 353°
2026-05-05 07:40 31.57496 104.36100 33902 ft 472 kts 353°
2026-05-05 07:40 31.64059 104.35719 33904 ft 472 kts 353°
2026-05-05 07:41 31.69515 104.35400 33908 ft 472 kts 353°
2026-05-05 07:41 31.76083 104.35015 33915 ft 473 kts 353°
2026-05-05 07:42 31.82648 104.34661 33919 ft 473 kts 353°
2026-05-05 07:42 31.89228 104.34330 33921 ft 473 kts 353°
2026-05-05 07:43 31.95810 104.33998 33920 ft 473 kts 353°
2026-05-05 07:43 32.02393 104.33661 33922 ft 473 kts 353°
2026-05-05 07:44 32.08966 104.33322 33920 ft 473 kts 353°
2026-05-05 07:44 32.15555 104.32983 33914 ft 474 kts 353°
2026-05-05 07:45 32.22140 104.32642 33922 ft 474 kts 353°
2026-05-05 07:45 32.28689 104.32302 33917 ft 474 kts 353°
2026-05-05 07:46 32.35280 104.31961 33917 ft 474 kts 353°
2026-05-05 07:46 32.41872 104.31622 33918 ft 474 kts 353°
2026-05-05 07:47 32.48474 104.31304 33914 ft 475 kts 354°
2026-05-05 07:47 32.55070 104.30988 33910 ft 475 kts 354°
2026-05-05 07:48 32.61675 104.30676 33907 ft 475 kts 354°
2026-05-05 07:48 32.68280 104.30360 33896 ft 475 kts 353°
2026-05-05 07:49 32.74874 104.30037 33874 ft 475 kts 353°
2026-05-05 07:49 32.81482 104.29716 33875 ft 475 kts 353°
2026-05-05 07:50 32.88094 104.29401 33857 ft 475 kts 354°
2026-05-05 07:50 32.94709 104.29085 33843 ft 475 kts 353°
2026-05-05 07:51 33.01308 104.28760 33823 ft 475 kts 353°
2026-05-05 07:51 33.07917 104.28437 33815 ft 475 kts 353°
2026-05-05 07:52 33.14530 104.28116 33811 ft 475 kts 353°
2026-05-05 07:52 33.21094 104.27797 33794 ft 475 kts 353°
2026-05-05 07:53 33.27666 104.27020 33789 ft 469 kts 343°
2026-05-05 07:53 33.33627 104.24275 33777 ft 460 kts 327°
2026-05-05 07:54 33.38545 104.19495 33768 ft 456 kts 310°
2026-05-05 07:54 33.42056 104.13214 33765 ft 455 kts 299°
2026-05-05 07:55 33.45044 104.06520 33757 ft 456 kts 297°
2026-05-05 07:55 33.47982 103.99798 33745 ft 456 kts 297°
2026-05-05 07:56 33.50949 103.93080 33738 ft 456 kts 297°
2026-05-05 07:56 33.53932 103.86370 33728 ft 456 kts 298°
2026-05-05 07:57 33.56912 103.79662 33724 ft 456 kts 298°
2026-05-05 07:57 33.59893 103.72939 33714 ft 456 kts 297°
2026-05-05 07:58 33.62871 103.66217 33701 ft 456 kts 297°
2026-05-05 07:58 33.65836 103.59485 33703 ft 456 kts 297°
2026-05-05 07:59 33.68805 103.52747 33698 ft 456 kts 297°
2026-05-05 07:59 33.71770 103.46013 33688 ft 456 kts 297°
2026-05-05 08:00 33.74731 103.39272 33688 ft 456 kts 297°
2026-05-05 08:00 33.77682 103.32537 33684 ft 455 kts 297°
2026-05-05 08:01 33.80615 103.25836 33687 ft 456 kts 297°
2026-05-05 08:01 33.83564 103.19089 33683 ft 456 kts 297°
2026-05-05 08:02 33.86510 103.12326 33680 ft 457 kts 296°
2026-05-05 08:02 33.89457 103.05544 33686 ft 457 kts 296°
2026-05-05 08:03 33.92400 102.98761 33688 ft 458 kts 296°
2026-05-05 08:03 33.95345 102.91968 33686 ft 458 kts 296°
2026-05-05 08:04 33.98290 102.85156 33683 ft 458 kts 296°
2026-05-05 08:04 34.01228 102.78347 33682 ft 458 kts 296°
2026-05-05 08:05 34.04158 102.71539 33686 ft 458 kts 296°
2026-05-05 08:05 34.07096 102.64704 33686 ft 458 kts 296°
2026-05-05 08:06 34.10027 102.57875 33687 ft 458 kts 296°
2026-05-05 08:06 34.12953 102.51042 33687 ft 459 kts 295°
2026-05-05 08:07 34.15856 102.44245 33684 ft 458 kts 295°
2026-05-05 08:07 34.18771 102.37405 33683 ft 458 kts 295°
2026-05-05 08:08 34.21736 102.30587 33681 ft 458 kts 296°
2026-05-05 08:08 34.24763 102.23804 33680 ft 458 kts 296°
2026-05-05 08:09 34.27785 102.17014 33676 ft 458 kts 296°
2026-05-05 08:09 34.30785 102.10222 33677 ft 458 kts 296°
2026-05-05 08:10 34.33774 102.03428 33668 ft 458 kts 295°
2026-05-05 08:10 34.36760 101.96629 33672 ft 458 kts 295°
2026-05-05 08:11 34.39750 101.89812 33666 ft 458 kts 295°
2026-05-05 08:11 34.42733 101.83001 33664 ft 458 kts 295°
2026-05-05 08:12 34.45712 101.76179 33665 ft 458 kts 295°
2026-05-05 08:12 34.48682 101.69361 33652 ft 457 kts 295°
2026-05-05 08:13 34.51642 101.62553 33647 ft 457 kts 295°
2026-05-05 08:13 34.54585 101.55773 33645 ft 456 kts 295°
2026-05-05 08:14 34.57535 101.48968 33634 ft 455 kts 295°
2026-05-05 08:14 34.60474 101.42172 33636 ft 455 kts 295°
2026-05-05 08:15 34.63406 101.35379 33636 ft 454 kts 295°
2026-05-05 08:15 34.66329 101.28588 33630 ft 454 kts 294°
2026-05-05 08:16 34.69253 101.21790 33615 ft 453 kts 294°
2026-05-05 08:16 34.72163 101.15006 33628 ft 453 kts 294°
2026-05-05 08:17 34.75069 101.08218 33629 ft 452 kts 294°
2026-05-05 08:17 34.77967 101.01438 33611 ft 452 kts 294°
2026-05-05 08:18 34.80857 100.94661 33614 ft 451 kts 294°
2026-05-05 08:18 34.83737 100.87891 33613 ft 451 kts 294°
2026-05-05 08:19 34.86615 100.81110 33604 ft 450 kts 294°
2026-05-05 08:19 34.89490 100.74330 33605 ft 450 kts 294°
2026-05-05 08:20 34.92336 100.67599 33598 ft 450 kts 294°
2026-05-05 08:20 34.95204 100.60813 33588 ft 450 kts 293°
2026-05-05 08:21 34.98063 100.54027 33575 ft 449 kts 293°
2026-05-05 08:21 35.00911 100.47245 33565 ft 449 kts 293°
2026-05-05 08:22 35.03758 100.40468 33555 ft 450 kts 293°
2026-05-05 08:22 35.06607 100.33664 33551 ft 451 kts 293°
2026-05-05 08:23 35.09458 100.26839 33552 ft 451 kts 293°
2026-05-05 08:23 35.12309 100.20001 33542 ft 453 kts 293°
2026-05-05 08:24 35.15172 100.13123 33552 ft 454 kts 293°
2026-05-05 08:24 35.18025 100.06254 33552 ft 454 kts 293°
2026-05-05 08:25 35.20889 99.99349 33563 ft 455 kts 293°
2026-05-05 08:25 35.23717 99.92501 33565 ft 454 kts 293°
2026-05-05 08:26 35.26567 99.85596 33588 ft 455 kts 293°
2026-05-05 08:26 35.29411 99.78697 33600 ft 454 kts 293°
2026-05-05 08:27 35.32247 99.71800 33613 ft 454 kts 293°
2026-05-05 08:27 35.35083 99.64884 33619 ft 454 kts 292°
2026-05-05 08:28 35.37918 99.57959 33636 ft 455 kts 293°
2026-05-05 08:28 35.40754 99.51020 33647 ft 456 kts 292°
2026-05-05 08:29 35.43572 99.44106 33657 ft 456 kts 292°
2026-05-05 08:30 35.47823 99.33638 33669 ft 458 kts 292°
2026-05-05 08:30 35.50659 99.26644 33670 ft 458 kts 292°
2026-05-05 08:31 35.53498 99.19635 33670 ft 459 kts 292°
2026-05-05 08:31 35.56339 99.12601 33675 ft 460 kts 292°
2026-05-05 08:32 35.59179 99.05551 33673 ft 461 kts 292°
2026-05-05 08:32 35.62017 98.98490 33672 ft 461 kts 292°
2026-05-05 08:33 35.64857 98.91409 33674 ft 462 kts 292°
2026-05-05 08:33 35.67694 98.84324 33676 ft 462 kts 292°
2026-05-05 08:34 35.70532 98.77221 33683 ft 463 kts 292°
2026-05-05 08:34 35.73348 98.70153 33682 ft 464 kts 292°
2026-05-05 08:35 35.75724 98.64178 33686 ft 464 kts 292°
2026-05-05 08:35 35.79023 98.55871 33688 ft 465 kts 292°
2026-05-05 08:36 35.81401 98.49867 33693 ft 465 kts 292°
2026-05-05 08:36 35.84232 98.42697 33690 ft 466 kts 292°
2026-05-05 08:37 35.87049 98.35558 33698 ft 467 kts 292°
2026-05-05 08:37 35.89881 98.28357 33695 ft 466 kts 292°
2026-05-05 08:38 35.92711 98.21154 33700 ft 467 kts 292°
2026-05-05 08:38 35.95537 98.13939 33695 ft 467 kts 292°
2026-05-05 08:39 35.98352 98.06724 33693 ft 467 kts 292°
2026-05-05 08:39 36.01171 97.99487 33690 ft 468 kts 292°
2026-05-05 08:40 36.03994 97.92231 33682 ft 468 kts 292°
2026-05-05 08:40 36.06804 97.84997 33678 ft 468 kts 292°
2026-05-05 08:41 36.09619 97.77730 33663 ft 468 kts 292°
2026-05-05 08:41 36.12428 97.70460 33656 ft 469 kts 292°
2026-05-05 08:42 36.15237 97.63174 33647 ft 469 kts 292°
2026-05-05 08:42 36.18109 97.55930 33641 ft 470 kts 293°
2026-05-05 08:43 36.21054 97.48708 33636 ft 470 kts 293°
2026-05-05 08:43 36.23992 97.41472 33632 ft 470 kts 293°
2026-05-05 08:44 36.26893 97.34266 33631 ft 470 kts 292°
2026-05-05 08:44 36.29802 97.27006 33629 ft 470 kts 292°
2026-05-05 08:45 36.32704 97.19747 33630 ft 471 kts 292°
2026-05-05 08:45 36.35611 97.12458 33627 ft 471 kts 292°
2026-05-05 08:46 36.38509 97.05180 33627 ft 471 kts 292°
2026-05-05 08:46 36.41408 96.97881 33625 ft 471 kts 292°
2026-05-05 08:47 36.44302 96.90579 33629 ft 472 kts 292°
2026-05-05 08:47 36.47196 96.83260 33630 ft 472 kts 292°
2026-05-05 08:48 36.50084 96.75937 33628 ft 472 kts 292°
2026-05-05 08:48 36.52956 96.68638 33628 ft 472 kts 292°
2026-05-05 08:49 36.55856 96.61253 33629 ft 473 kts 292°
2026-05-05 08:49 36.58744 96.53947 33628 ft 473 kts 292°
2026-05-05 08:50 36.61686 96.46622 33626 ft 474 kts 293°
2026-05-05 08:50 36.64630 96.39280 33626 ft 474 kts 292°
2026-05-05 08:51 36.67568 96.31917 33622 ft 475 kts 292°
2026-05-05 08:51 36.70501 96.24538 33621 ft 475 kts 292°
2026-05-05 08:52 36.73425 96.17165 33623 ft 476 kts 292°
2026-05-05 08:52 36.76357 96.09756 33621 ft 476 kts 292°
2026-05-05 08:53 36.79299 96.02329 33627 ft 477 kts 293°
2026-05-05 08:53 36.82252 95.94924 33631 ft 478 kts 293°
2026-05-05 08:54 36.85219 95.87468 33640 ft 479 kts 292°
2026-05-05 08:54 36.88174 95.80021 33643 ft 479 kts 292°
2026-05-05 08:55 36.91108 95.72605 33649 ft 479 kts 292°
2026-05-05 08:55 36.94075 95.65087 33652 ft 480 kts 292°
2026-05-05 08:56 36.97005 95.57648 33664 ft 480 kts 292°
2026-05-05 08:56 36.99947 95.50155 33667 ft 480 kts 292°
2026-05-05 08:57 37.02945 95.42680 33673 ft 481 kts 293°
2026-05-05 08:57 37.05992 95.35243 33677 ft 481 kts 293°
2026-05-05 08:58 37.09041 95.27766 33684 ft 481 kts 292°
2026-05-05 08:58 37.12061 95.20311 33692 ft 481 kts 292°
2026-05-05 08:59 37.15082 95.12822 33682 ft 481 kts 292°
2026-05-05 08:59 37.18098 95.05327 33691 ft 481 kts 292°
2026-05-05 09:00 37.21118 94.97808 33693 ft 482 kts 292°
2026-05-05 09:00 37.24126 94.90301 33689 ft 483 kts 292°
2026-05-05 09:01 37.27140 94.82764 33684 ft 483 kts 292°
2026-05-05 09:01 37.30143 94.75230 33684 ft 483 kts 292°
2026-05-05 09:02 37.33142 94.67687 33688 ft 482 kts 292°
2026-05-05 09:02 37.36139 94.60137 33683 ft 482 kts 292°
2026-05-05 09:03 37.39103 94.52650 33688 ft 481 kts 292°
2026-05-05 09:03 37.42080 94.45113 33695 ft 481 kts 292°
2026-05-05 09:04 37.45051 94.37574 33704 ft 480 kts 292°
2026-05-05 09:04 37.48017 94.30028 33709 ft 480 kts 292°
2026-05-05 09:05 37.50967 94.22504 33717 ft 480 kts 292°
2026-05-05 09:05 37.53924 94.14943 33723 ft 480 kts 292°
2026-05-05 09:06 37.56872 94.07384 33727 ft 481 kts 292°
2026-05-05 09:06 37.59825 93.99798 33731 ft 482 kts 292°
2026-05-05 09:07 37.62772 93.92212 33739 ft 483 kts 292°
2026-05-05 09:07 37.65726 93.84588 33744 ft 484 kts 292°
2026-05-05 09:08 37.68684 93.76935 33749 ft 485 kts 292°
2026-05-05 09:08 37.71635 93.69281 33755 ft 485 kts 292°
2026-05-05 09:09 37.74591 93.61593 33764 ft 485 kts 292°
2026-05-05 09:09 37.77534 93.53923 33769 ft 485 kts 292°
2026-05-05 09:10 37.80454 93.46290 33785 ft 485 kts 292°
2026-05-05 09:10 37.83381 93.38623 33794 ft 484 kts 292°
2026-05-05 09:11 37.86300 93.30959 33806 ft 483 kts 292°
2026-05-05 09:11 37.89209 93.23294 33818 ft 483 kts 292°
2026-05-05 09:12 37.92114 93.15623 33829 ft 484 kts 292°
2026-05-05 09:12 37.95018 93.07933 33839 ft 484 kts 292°
2026-05-05 09:13 37.97925 93.00220 33851 ft 485 kts 292°
2026-05-05 09:13 38.00830 92.92491 33868 ft 486 kts 292°
2026-05-05 09:14 38.03732 92.84753 33862 ft 487 kts 292°
2026-05-05 09:14 38.06638 92.76984 33876 ft 488 kts 292°
2026-05-05 09:15 38.09546 92.69191 33881 ft 488 kts 292°
2026-05-05 09:15 38.12447 92.61398 33888 ft 488 kts 292°
2026-05-05 09:16 38.15324 92.53645 33940 ft 488 kts 292°
2026-05-05 09:16 38.16769 92.49750 34190 ft 486 kts 291°
2026-05-05 09:16 38.18131 92.45854 34469 ft 482 kts 288°
2026-05-05 09:16 38.19335 92.41878 34715 ft 480 kts 286°
2026-05-05 09:17 38.20455 92.37894 34936 ft 479 kts 285°
2026-05-05 09:17 38.21561 92.33893 35156 ft 478 kts 285°
2026-05-05 09:17 38.22670 92.29927 35367 ft 477 kts 285°
2026-05-05 09:17 38.23803 92.25948 35565 ft 477 kts 285°
2026-05-05 09:18 38.24949 92.21988 35760 ft 477 kts 285°
2026-05-05 09:18 38.26102 92.18039 35904 ft 477 kts 285°
2026-05-05 09:18 38.27269 92.14059 35926 ft 481 kts 285°
2026-05-05 09:19 38.29614 92.06059 35932 ft 482 kts 285°
2026-05-05 09:19 38.31946 91.98088 35939 ft 481 kts 285°
2026-05-05 09:20 38.34276 91.90087 35946 ft 480 kts 285°
2026-05-05 09:20 38.36585 91.82127 35952 ft 479 kts 285°
2026-05-05 09:21 38.38890 91.74158 35954 ft 479 kts 285°
2026-05-05 09:21 38.41186 91.66198 35963 ft 478 kts 285°
2026-05-05 09:22 38.43456 91.58300 35966 ft 477 kts 285°
2026-05-05 09:22 38.45736 91.50347 35972 ft 477 kts 285°
2026-05-05 09:23 38.48012 91.42385 35979 ft 477 kts 285°
2026-05-05 09:23 38.50282 91.34420 35989 ft 477 kts 285°
2026-05-05 09:24 38.52538 91.26480 35998 ft 477 kts 284°
2026-05-05 09:24 38.54796 91.18504 36007 ft 476 kts 284°
2026-05-05 09:25 38.57045 91.10545 36020 ft 476 kts 284°
2026-05-05 09:25 38.59280 91.02604 36034 ft 476 kts 284°
2026-05-05 09:26 38.61514 90.94648 36044 ft 475 kts 284°
2026-05-05 09:26 38.63740 90.86690 36058 ft 474 kts 285°
2026-05-05 09:27 38.65956 90.78749 36067 ft 474 kts 284°
2026-05-05 09:27 38.67796 90.72136 36076 ft 473 kts 285°
2026-05-05 09:28 38.70102 90.64245 36078 ft 474 kts 287°
2026-05-05 09:28 38.72662 90.56454 36082 ft 476 kts 288°
2026-05-05 09:29 38.75233 90.48658 36082 ft 475 kts 288°
2026-05-05 09:29 38.77761 90.40826 36076 ft 475 kts 288°
2026-05-05 09:30 38.80256 90.33001 36068 ft 474 kts 288°
2026-05-05 09:30 38.82745 90.25175 36061 ft 474 kts 288°
2026-05-05 09:31 38.85225 90.17341 36053 ft 473 kts 288°
2026-05-05 09:31 38.87675 90.09590 36045 ft 472 kts 288°
2026-05-05 09:32 38.90139 90.01774 36033 ft 471 kts 288°
2026-05-05 09:32 38.92606 89.93928 36020 ft 471 kts 288°
2026-05-05 09:33 38.95035 89.86169 36011 ft 471 kts 288°
2026-05-05 09:33 38.97474 89.78371 35988 ft 471 kts 288°
2026-05-05 09:34 38.99913 89.70553 35980 ft 470 kts 288°
2026-05-05 09:34 39.02334 89.62766 35966 ft 470 kts 288°
2026-05-05 09:35 39.04753 89.54966 35951 ft 469 kts 288°
2026-05-05 09:35 39.08371 89.43254 35925 ft 469 kts 288°
2026-05-05 09:36 39.10773 89.35453 35902 ft 469 kts 288°
2026-05-05 09:36 39.13177 89.27623 35896 ft 469 kts 287°
2026-05-05 09:37 39.15568 89.19811 35870 ft 470 kts 287°
2026-05-05 09:37 39.17961 89.11971 35880 ft 470 kts 287°
2026-05-05 09:38 39.20347 89.04131 35857 ft 470 kts 287°
2026-05-05 09:38 39.22733 88.96272 35847 ft 469 kts 287°
2026-05-05 09:39 39.25088 88.88491 35836 ft 469 kts 287°
2026-05-05 09:39 39.27453 88.80650 35829 ft 468 kts 287°
2026-05-05 09:40 39.29811 88.72815 35820 ft 468 kts 287°
2026-05-05 09:40 39.32157 88.64995 35813 ft 467 kts 287°
2026-05-05 09:41 39.34498 88.57170 35810 ft 466 kts 287°
2026-05-05 09:41 39.36824 88.49372 35804 ft 465 kts 287°
2026-05-05 09:42 39.39143 88.41572 35806 ft 464 kts 286°
2026-05-05 09:42 39.41453 88.33782 35803 ft 463 kts 286°
2026-05-05 09:43 39.43755 88.25996 35802 ft 463 kts 286°
2026-05-05 09:43 39.46046 88.18224 35805 ft 462 kts 286°
2026-05-05 09:44 39.48329 88.10457 35805 ft 462 kts 286°
2026-05-05 09:44 39.50607 88.02684 35806 ft 462 kts 286°
2026-05-05 09:45 39.52864 87.94961 35801 ft 461 kts 286°
2026-05-05 09:45 39.55143 87.87138 35804 ft 461 kts 286°
2026-05-05 09:46 39.57388 87.79411 35810 ft 461 kts 286°
2026-05-05 09:46 39.59638 87.71644 35806 ft 460 kts 286°
2026-05-05 09:47 39.61875 87.63891 35808 ft 460 kts 286°
2026-05-05 09:47 39.64113 87.56122 35809 ft 459 kts 286°
2026-05-05 09:48 39.66342 87.48359 35809 ft 459 kts 286°
2026-05-05 09:48 39.68562 87.40604 35813 ft 458 kts 286°
2026-05-05 09:49 39.70774 87.32854 35814 ft 458 kts 286°
2026-05-05 09:49 39.72978 87.25107 35808 ft 457 kts 286°
2026-05-05 09:50 39.75178 87.17353 35814 ft 457 kts 286°
2026-05-05 09:50 39.77373 87.09597 35815 ft 457 kts 286°
2026-05-05 09:51 39.79558 87.01846 35817 ft 457 kts 286°
2026-05-05 09:51 39.81737 86.94096 35819 ft 456 kts 286°
2026-05-05 09:52 39.83895 86.86397 35817 ft 456 kts 286°
2026-05-05 09:52 39.86064 86.78639 35814 ft 456 kts 286°
2026-05-05 09:53 39.88224 86.70890 35818 ft 456 kts 286°
2026-05-05 09:53 39.90380 86.63130 35821 ft 455 kts 286°
2026-05-05 09:54 39.92527 86.55377 35807 ft 454 kts 286°
2026-05-05 09:54 39.94665 86.47635 35826 ft 453 kts 286°
2026-05-05 09:55 39.96791 86.39913 35809 ft 452 kts 286°
2026-05-05 09:55 39.98910 86.32197 35809 ft 452 kts 286°
2026-05-05 09:56 40.01019 86.24492 35810 ft 451 kts 286°
2026-05-05 09:56 40.03122 86.16785 35810 ft 450 kts 286°
2026-05-05 09:57 40.05201 86.09141 35810 ft 450 kts 285°
2026-05-05 09:57 40.07286 86.01448 35809 ft 450 kts 285°
2026-05-05 09:58 40.09239 85.93703 35811 ft 448 kts 283°
2026-05-05 09:58 40.10900 85.85866 35804 ft 448 kts 282°
2026-05-05 09:59 40.12550 85.78025 35803 ft 448 kts 282°
2026-05-05 09:59 40.14248 85.70177 35805 ft 448 kts 283°
2026-05-05 10:00 40.15964 85.62338 35803 ft 449 kts 283°
2026-05-05 10:00 40.17675 85.54503 35804 ft 449 kts 283°
2026-05-05 10:01 40.19383 85.46645 35808 ft 449 kts 283°
2026-05-05 10:01 40.21083 85.38788 35809 ft 449 kts 283°
2026-05-05 10:02 40.22777 85.30931 35808 ft 449 kts 283°
2026-05-05 10:02 40.24465 85.23068 35805 ft 449 kts 283°
2026-05-05 10:03 40.26138 85.15252 35804 ft 450 kts 283°
2026-05-05 10:03 40.27820 85.07363 35806 ft 450 kts 283°
2026-05-05 10:04 40.29498 84.99463 35809 ft 450 kts 283°
2026-05-05 10:04 40.31172 84.91555 35811 ft 450 kts 283°
2026-05-05 10:05 40.32838 84.83653 35812 ft 450 kts 283°
2026-05-05 10:05 40.34501 84.75742 35811 ft 450 kts 283°
2026-05-05 10:06 40.36160 84.67814 35815 ft 451 kts 283°
2026-05-05 10:06 40.37814 84.59883 35815 ft 451 kts 283°
2026-05-05 10:07 40.39186 84.53280 35818 ft 451 kts 283°
2026-05-05 10:07 40.41097 84.44051 35816 ft 451 kts 283°
2026-05-05 10:08 40.42745 84.36055 35816 ft 451 kts 283°
2026-05-05 10:08 40.44379 84.28101 35817 ft 451 kts 283°
2026-05-05 10:09 40.45999 84.20181 35821 ft 452 kts 283°
2026-05-05 10:09 40.47620 84.12229 35819 ft 452 kts 283°
2026-05-05 10:10 40.49242 84.04242 35823 ft 452 kts 283°
2026-05-05 10:10 40.50857 83.96257 35822 ft 452 kts 283°
2026-05-05 10:11 40.52483 83.88278 35821 ft 452 kts 283°
2026-05-05 10:11 40.54163 83.80301 35826 ft 453 kts 283°
2026-05-05 10:12 40.55845 83.72315 35829 ft 453 kts 283°
2026-05-05 10:12 40.57513 83.64328 35830 ft 454 kts 283°
2026-05-05 10:13 40.59176 83.56304 35834 ft 454 kts 283°
2026-05-05 10:13 40.60833 83.48280 35834 ft 454 kts 283°
2026-05-05 10:14 40.62484 83.40255 35841 ft 455 kts 283°
2026-05-05 10:14 40.64133 83.32208 35847 ft 456 kts 283°
2026-05-05 10:15 40.65781 83.24136 35851 ft 456 kts 283°
2026-05-05 10:15 40.67425 83.16049 35852 ft 457 kts 283°
2026-05-05 10:16 40.69056 83.08001 35856 ft 458 kts 283°
2026-05-05 10:16 40.70702 82.99841 35860 ft 458 kts 283°
2026-05-05 10:17 40.72324 82.91770 35866 ft 459 kts 283°
2026-05-05 10:17 40.73953 82.83630 35863 ft 460 kts 283°
2026-05-05 10:18 40.75578 82.75478 35867 ft 460 kts 283°
2026-05-05 10:18 40.77205 82.67288 35862 ft 461 kts 283°
2026-05-05 10:19 40.78821 82.59117 35863 ft 462 kts 283°
2026-05-05 10:19 40.80167 82.52286 35866 ft 462 kts 283°
2026-05-05 10:20 40.81777 82.44083 35863 ft 463 kts 283°
2026-05-05 10:20 40.83386 82.35853 35869 ft 463 kts 283°
2026-05-05 10:21 40.84992 82.27605 35868 ft 464 kts 283°
2026-05-05 10:21 40.86592 82.19349 35863 ft 464 kts 283°
2026-05-05 10:22 40.88191 82.11072 35860 ft 465 kts 283°
2026-05-05 10:22 40.89783 82.02788 35860 ft 465 kts 283°
2026-05-05 10:23 40.91369 81.94504 35862 ft 465 kts 283°
2026-05-05 10:23 40.92951 81.86210 35859 ft 465 kts 283°
2026-05-05 10:24 40.94526 81.77911 35865 ft 466 kts 283°
2026-05-05 10:24 40.96085 81.69665 35869 ft 466 kts 283°
2026-05-05 10:25 40.97712 81.61374 35860 ft 466 kts 285°
2026-05-05 10:25 40.99599 81.53169 35861 ft 466 kts 287°
2026-05-05 10:26 41.01516 81.44969 35861 ft 466 kts 286°
2026-05-05 10:26 41.03387 81.36750 35866 ft 466 kts 286°
2026-05-05 10:27 41.05231 81.28501 35862 ft 466 kts 286°
2026-05-05 10:27 41.07060 81.20274 35865 ft 467 kts 286°
2026-05-05 10:28 41.08889 81.12020 35867 ft 467 kts 286°
2026-05-05 10:28 41.10714 81.03763 35874 ft 467 kts 286°
2026-05-05 10:29 41.12532 80.95506 35869 ft 466 kts 285°
2026-05-05 10:29 41.14334 80.87290 35874 ft 466 kts 285°
2026-05-05 10:30 41.16149 80.78980 35877 ft 466 kts 285°
2026-05-05 10:30 41.17947 80.70719 35879 ft 466 kts 285°
2026-05-05 10:31 41.19725 80.62517 35880 ft 466 kts 285°
2026-05-05 10:31 41.21511 80.54248 35880 ft 466 kts 285°
2026-05-05 10:32 41.23296 80.45951 35888 ft 466 kts 285°
2026-05-05 10:32 41.25073 80.37662 35889 ft 467 kts 285°
2026-05-05 10:33 41.26847 80.29356 35895 ft 467 kts 285°
2026-05-05 10:33 41.28609 80.21029 35902 ft 468 kts 285°
2026-05-05 10:34 41.30357 80.12699 35907 ft 469 kts 285°
2026-05-05 10:34 41.32093 80.04394 35915 ft 469 kts 285°
2026-05-05 10:35 41.33839 79.96019 35925 ft 470 kts 285°
2026-05-05 10:35 41.35582 79.87636 35928 ft 470 kts 285°
2026-05-05 10:36 41.37322 79.79229 35939 ft 471 kts 285°
2026-05-05 10:36 41.39053 79.70835 35940 ft 471 kts 284°
2026-05-05 10:37 41.40785 79.62397 35953 ft 472 kts 284°
2026-05-05 10:37 41.42510 79.53963 35959 ft 472 kts 284°
2026-05-05 10:38 41.44228 79.45528 35968 ft 472 kts 284°
2026-05-05 10:38 41.45940 79.37076 35985 ft 472 kts 284°
2026-05-05 10:39 41.47644 79.28640 36009 ft 472 kts 284°
2026-05-05 10:39 41.49347 79.20178 36035 ft 471 kts 284°
2026-05-05 10:40 41.51040 79.11732 36067 ft 471 kts 284°
2026-05-05 10:40 41.52714 79.03339 36094 ft 472 kts 284°
2026-05-05 10:41 41.54394 78.94882 36118 ft 472 kts 284°
2026-05-05 10:41 41.56023 78.86390 36135 ft 472 kts 280°
2026-05-05 10:42 41.56495 78.77667 36152 ft 471 kts 269°
2026-05-05 10:42 41.56411 78.73298 36160 ft 471 kts 268°
2026-05-05 10:43 41.56118 78.64564 36172 ft 471 kts 266°
2026-05-05 10:43 41.55792 78.55826 36172 ft 472 kts 266°
2026-05-05 10:44 41.55485 78.47065 36175 ft 471 kts 266°
2026-05-05 10:44 41.55182 78.38322 36179 ft 472 kts 266°
2026-05-05 10:45 41.54875 78.29562 36173 ft 472 kts 266°
2026-05-05 10:45 41.54562 78.20868 36180 ft 472 kts 266°
2026-05-05 10:46 41.54237 78.12077 36179 ft 472 kts 266°
2026-05-05 10:46 41.53903 78.03372 36185 ft 473 kts 266°
2026-05-05 10:47 41.53567 77.94617 36188 ft 473 kts 266°
2026-05-05 10:47 41.53224 77.85821 36193 ft 474 kts 266°
2026-05-05 10:48 41.52876 77.77039 36193 ft 474 kts 266°
2026-05-05 10:48 41.52518 77.68243 36196 ft 475 kts 266°
2026-05-05 10:49 41.52154 77.59460 36201 ft 475 kts 266°
2026-05-05 10:49 41.51782 77.50671 36203 ft 475 kts 266°
2026-05-05 10:50 41.51403 77.41868 36208 ft 475 kts 266°
2026-05-05 10:50 41.51019 77.33118 36209 ft 475 kts 266°
2026-05-05 10:51 41.50628 77.24330 36206 ft 475 kts 266°
2026-05-05 10:51 41.50228 77.15526 36211 ft 476 kts 266°
2026-05-05 10:52 41.49821 77.06695 36210 ft 476 kts 266°
2026-05-05 10:52 41.49409 76.97881 36217 ft 476 kts 266°
2026-05-05 10:53 41.48989 76.89078 36224 ft 476 kts 266°
2026-05-05 10:53 41.48562 76.80249 36225 ft 476 kts 266°
2026-05-05 10:54 41.48128 76.71425 36228 ft 476 kts 266°
2026-05-05 10:54 41.47691 76.62620 36236 ft 476 kts 266°
2026-05-05 10:55 41.47242 76.53793 36235 ft 477 kts 266°
2026-05-05 10:55 41.46787 76.44967 36242 ft 477 kts 266°
2026-05-05 10:56 41.46325 76.36144 36242 ft 477 kts 266°
2026-05-05 10:56 41.45858 76.27322 36244 ft 478 kts 266°
2026-05-05 10:57 41.45386 76.18545 36243 ft 478 kts 266°
2026-05-05 10:57 41.44904 76.09712 36240 ft 478 kts 266°
2026-05-05 10:58 41.44415 76.00874 36236 ft 478 kts 266°
2026-05-05 10:58 41.43919 75.92028 36234 ft 478 kts 266°
2026-05-05 10:59 41.43418 75.83188 36237 ft 479 kts 266°
2026-05-05 10:59 41.42907 75.74333 36239 ft 479 kts 266°
2026-05-05 11:00 41.42395 75.65505 36245 ft 479 kts 266°
2026-05-05 11:00 41.41871 75.56652 36250 ft 479 kts 266°
2026-05-05 11:01 41.41339 75.47789 36261 ft 479 kts 266°
2026-05-05 11:01 41.40804 75.38965 36270 ft 479 kts 266°
2026-05-05 11:02 41.40259 75.30097 36278 ft 479 kts 266°
2026-05-05 11:02 41.39710 75.21256 36277 ft 480 kts 265°
2026-05-05 11:03 41.39152 75.12383 36282 ft 480 kts 265°
2026-05-05 11:03 41.38588 75.03526 36275 ft 481 kts 265°
2026-05-05 11:04 41.38017 74.94656 36276 ft 481 kts 265°
2026-05-05 11:04 41.37437 74.85768 36273 ft 482 kts 265°
2026-05-05 11:05 41.36858 74.76935 36274 ft 482 kts 265°
2026-05-05 11:05 41.36261 74.68034 36268 ft 483 kts 265°
2026-05-05 11:06 41.35657 74.59127 36269 ft 483 kts 265°
2026-05-05 11:06 41.35046 74.50214 36270 ft 484 kts 265°
2026-05-05 11:07 41.34430 74.41308 36273 ft 484 kts 265°
2026-05-05 11:07 41.33805 74.32374 36270 ft 485 kts 265°
2026-05-05 11:08 41.33173 74.23440 36282 ft 486 kts 265°
2026-05-05 11:08 41.32532 74.14479 36273 ft 486 kts 265°
2026-05-05 11:09 41.31884 74.05526 36272 ft 486 kts 265°
2026-05-05 11:09 41.31255 73.96563 36271 ft 487 kts 266°
2026-05-05 11:10 41.30878 73.87583 36277 ft 487 kts 268°
2026-05-05 11:10 41.30563 73.78577 36273 ft 487 kts 268°
2026-05-05 11:11 41.30207 73.69636 36273 ft 487 kts 268°
2026-05-05 11:11 41.29816 73.60627 36268 ft 488 kts 268°
2026-05-05 11:12 41.29410 73.51627 36269 ft 488 kts 268°
2026-05-05 11:12 41.29064 73.44089 36274 ft 488 kts 268°
2026-05-05 11:13 41.28578 73.33608 36261 ft 488 kts 267°
2026-05-05 11:13 41.28150 73.24609 36252 ft 488 kts 267°
2026-05-05 11:14 41.27790 73.17118 36255 ft 488 kts 267°
2026-05-05 11:14 41.27354 73.08125 36234 ft 488 kts 267°
2026-05-05 11:15 41.26908 72.99105 36239 ft 488 kts 267°
2026-05-05 11:15 41.26458 72.90124 36215 ft 488 kts 267°
2026-05-05 11:16 41.25999 72.81130 36213 ft 487 kts 267°
2026-05-05 11:16 41.25533 72.72153 36204 ft 487 kts 267°
2026-05-05 11:17 41.25063 72.63198 36202 ft 486 kts 267°
2026-05-05 11:17 41.24585 72.54237 36180 ft 486 kts 267°
2026-05-05 11:18 41.24093 72.45272 36187 ft 486 kts 267°
2026-05-05 11:18 41.23592 72.36329 36180 ft 485 kts 267°
2026-05-05 11:19 41.23088 72.27455 36165 ft 485 kts 267°
2026-05-05 11:19 41.22576 72.18467 36149 ft 485 kts 267°
2026-05-05 11:20 41.22068 72.09545 36143 ft 484 kts 267°
2026-05-05 11:20 41.21557 72.00706 36148 ft 484 kts 267°
2026-05-05 11:21 41.21036 71.91811 36149 ft 483 kts 267°
2026-05-05 11:21 41.20508 71.82921 36142 ft 482 kts 267°
2026-05-05 11:22 41.19976 71.74041 36127 ft 481 kts 267°
2026-05-05 11:22 41.19434 71.65201 36123 ft 481 kts 267°
2026-05-05 11:23 41.18881 71.56362 36127 ft 480 kts 267°
2026-05-05 11:23 41.18324 71.47534 36112 ft 479 kts 267°
2026-05-05 11:24 41.17763 71.38730 36119 ft 479 kts 267°
2026-05-05 11:24 41.17199 71.29982 36138 ft 478 kts 267°
2026-05-05 11:25 41.16626 71.21203 36155 ft 477 kts 267°
2026-05-05 11:25 41.16044 71.12385 36188 ft 476 kts 267°
2026-05-05 11:26 41.15462 71.03684 36197 ft 476 kts 266°
2026-05-05 11:26 41.14874 70.94958 36203 ft 476 kts 266°
2026-05-05 11:27 41.14277 70.86208 36208 ft 475 kts 266°
2026-05-05 11:27 41.13672 70.77474 36226 ft 476 kts 266°
2026-05-05 11:28 41.13063 70.68741 36219 ft 475 kts 266°
2026-05-05 11:28 41.12450 70.60016 36231 ft 475 kts 266°
2026-05-05 11:29 41.11818 70.51300 36228 ft 475 kts 266°
2026-05-05 11:29 41.11188 70.42582 36222 ft 474 kts 266°
2026-05-05 11:30 41.10556 70.33902 36219 ft 474 kts 266°
2026-05-05 11:30 41.10016 70.25191 36216 ft 472 kts 271°
2026-05-05 11:31 41.10484 70.16550 36210 ft 471 kts 277°
2026-05-05 11:31 41.11231 70.07962 36206 ft 471 kts 278°
2026-05-05 11:32 41.12016 69.99293 36197 ft 471 kts 278°
2026-05-05 11:32 41.12773 69.90733 36187 ft 470 kts 277°
2026-05-05 11:33 41.13521 69.82056 36174 ft 470 kts 277°
2026-05-05 11:33 41.14247 69.73505 36161 ft 470 kts 277°
2026-05-05 11:34 41.14973 69.64898 36140 ft 469 kts 277°
2026-05-05 11:34 41.15693 69.56301 36128 ft 469 kts 277°
2026-05-05 11:35 41.16405 69.47714 36123 ft 468 kts 277°
2026-05-05 11:35 41.17110 69.39138 36117 ft 468 kts 277°
2026-05-05 11:36 41.17807 69.30555 36121 ft 467 kts 277°
2026-05-05 11:36 41.18498 69.21974 36123 ft 467 kts 277°
2026-05-05 11:37 41.18910 69.13347 36116 ft 468 kts 272°
2026-05-05 11:37 41.19025 69.04729 36114 ft 468 kts 272°
2026-05-05 11:38 41.19164 68.96087 36108 ft 468 kts 273°
2026-05-05 11:38 41.19669 68.87503 36104 ft 466 kts 278°
2026-05-05 11:39 41.20461 68.79005 36092 ft 466 kts 278°
2026-05-05 11:39 41.21294 68.70414 36093 ft 466 kts 278°
2026-05-05 11:40 41.22105 68.61927 36090 ft 466 kts 278°
2026-05-05 11:40 41.22905 68.53413 36087 ft 465 kts 278°
2026-05-05 11:41 41.23696 68.44879 36091 ft 465 kts 278°
2026-05-05 11:41 41.24480 68.36346 36088 ft 465 kts 278°
2026-05-05 11:42 41.25258 68.27820 36086 ft 465 kts 278°
2026-05-05 11:42 41.26030 68.19285 36090 ft 464 kts 278°
2026-05-05 11:43 41.26794 68.10780 36080 ft 464 kts 278°
2026-05-05 11:43 41.27551 68.02270 36079 ft 463 kts 278°
2026-05-05 11:44 41.28342 67.93782 36076 ft 462 kts 281°
2026-05-05 11:44 41.29566 67.85396 36074 ft 462 kts 282°
2026-05-05 11:45 41.30865 67.77042 36074 ft 461 kts 283°
2026-05-05 11:45 41.32170 67.68697 36075 ft 461 kts 283°
2026-05-05 11:46 41.33454 67.60397 36070 ft 460 kts 283°
2026-05-05 11:46 41.34733 67.52057 36071 ft 460 kts 282°
2026-05-05 11:47 41.36002 67.43736 36070 ft 459 kts 282°
2026-05-05 11:47 41.37266 67.35404 36071 ft 458 kts 282°
2026-05-05 11:48 41.39144 67.22943 36070 ft 457 kts 282°
2026-05-05 11:48 41.40387 67.14645 36069 ft 457 kts 282°
2026-05-05 11:49 41.41624 67.06344 36064 ft 456 kts 282°
2026-05-05 11:49 41.42853 66.98054 36065 ft 456 kts 282°
2026-05-05 11:50 41.44073 66.89784 36065 ft 455 kts 282°
2026-05-05 11:50 41.45289 66.81492 36066 ft 455 kts 282°
2026-05-05 11:51 41.46494 66.73234 36068 ft 454 kts 282°
2026-05-05 11:51 41.47696 66.64958 36068 ft 454 kts 282°
2026-05-05 11:52 41.48289 66.56586 36062 ft 455 kts 273°
2026-05-05 11:52 41.48360 66.48126 36078 ft 456 kts 272°
2026-05-05 11:53 41.48355 66.39672 36072 ft 455 kts 272°
2026-05-05 11:53 41.48347 66.31290 36062 ft 455 kts 272°
2026-05-05 11:54 41.48347 66.22856 36064 ft 455 kts 272°
2026-05-05 11:54 41.48345 66.14410 36066 ft 455 kts 272°
2026-05-05 11:55 41.48338 66.05970 36068 ft 455 kts 272°
2026-05-05 11:55 41.48324 65.97539 36067 ft 455 kts 272°
2026-05-05 11:56 41.48303 65.89121 36059 ft 454 kts 272°
2026-05-05 11:56 41.48277 65.80694 36060 ft 454 kts 272°
2026-05-05 11:57 41.48228 65.72262 36066 ft 454 kts 271°
2026-05-05 11:57 41.48125 65.63858 36059 ft 454 kts 271°
2026-05-05 11:58 41.48014 65.55483 36064 ft 454 kts 271°
2026-05-05 11:58 41.47906 65.47077 36066 ft 453 kts 271°
2026-05-05 11:59 41.47796 65.38673 36063 ft 453 kts 271°
2026-05-05 11:59 41.47680 65.30265 36065 ft 453 kts 271°
2026-05-05 12:00 41.47558 65.21884 36060 ft 452 kts 271°
2026-05-05 12:00 41.47430 65.13505 36058 ft 452 kts 271°
2026-05-05 12:01 41.47295 65.05128 36064 ft 451 kts 271°
2026-05-05 12:01 41.47155 64.96776 36062 ft 451 kts 271°
2026-05-05 12:02 41.47010 64.88438 36062 ft 450 kts 271°
2026-05-05 12:02 41.46858 64.80098 36062 ft 450 kts 270°
2026-05-05 12:03 41.46700 64.71770 36065 ft 449 kts 270°
2026-05-05 12:03 41.46537 64.63452 36062 ft 448 kts 270°
2026-05-05 12:04 41.46368 64.55160 36062 ft 448 kts 270°
2026-05-05 12:04 41.46223 64.48266 36060 ft 447 kts 270°
2026-05-05 12:05 41.46043 64.39975 36060 ft 447 kts 270°
2026-05-05 12:05 41.45827 64.30355 36059 ft 446 kts 270°
2026-05-05 12:06 41.45666 64.23440 36057 ft 446 kts 270°
2026-05-05 12:06 41.45470 64.15189 36052 ft 445 kts 270°
2026-05-05 12:07 41.45267 64.06935 36052 ft 445 kts 270°
2026-05-05 12:07 41.45058 63.98701 36046 ft 444 kts 270°
2026-05-05 12:08 41.44845 63.90476 36045 ft 444 kts 270°
2026-05-05 12:08 41.44626 63.82254 36041 ft 444 kts 270°
2026-05-05 12:09 41.44402 63.74099 36041 ft 443 kts 270°
2026-05-05 12:09 41.44287 63.69989 36166 ft 442 kts 270°
2026-05-05 12:09 41.44172 63.65923 36493 ft 439 kts 270°
2026-05-05 12:10 41.44054 63.61864 36797 ft 437 kts 270°
2026-05-05 12:10 41.43931 63.57816 37031 ft 436 kts 269°
2026-05-05 12:10 41.43806 63.53790 37228 ft 435 kts 269°
2026-05-05 12:10 41.43679 63.49770 37421 ft 435 kts 269°
2026-05-05 12:11 41.43551 63.45726 37612 ft 435 kts 269°
2026-05-05 12:11 41.43422 63.41715 37825 ft 434 kts 269°
2026-05-05 12:11 41.43292 63.37700 37930 ft 435 kts 269°
2026-05-05 12:11 41.43160 63.33643 37927 ft 439 kts 269°
2026-05-05 12:12 41.42891 63.25513 37923 ft 439 kts 269°
2026-05-05 12:12 41.42615 63.17390 37920 ft 438 kts 269°
2026-05-05 12:13 41.42337 63.09327 37917 ft 438 kts 269°
2026-05-05 12:13 41.42051 63.01220 37916 ft 438 kts 268°
2026-05-05 12:14 41.41760 62.93127 37916 ft 438 kts 268°
2026-05-05 12:14 41.41463 62.85028 37912 ft 438 kts 268°
2026-05-05 12:15 41.41161 62.76921 37911 ft 438 kts 268°
2026-05-05 12:15 41.40853 62.68828 37911 ft 438 kts 268°
2026-05-05 12:16 41.40539 62.60732 37905 ft 438 kts 268°
2026-05-05 12:16 41.40220 62.52642 37909 ft 438 kts 268°
2026-05-05 12:17 41.39910 62.44600 37915 ft 438 kts 268°
2026-05-05 12:17 41.39610 62.36504 37914 ft 438 kts 268°
2026-05-05 12:18 41.39304 62.28410 37913 ft 438 kts 268°
2026-05-05 12:18 41.38989 62.20317 37914 ft 438 kts 268°
2026-05-05 12:19 41.38669 62.12215 37913 ft 438 kts 268°
2026-05-05 12:19 41.38342 62.04116 37911 ft 438 kts 268°
2026-05-05 12:20 41.38010 61.96021 37909 ft 438 kts 267°
2026-05-05 12:20 41.37672 61.87941 37913 ft 438 kts 267°
2026-05-05 12:21 41.37328 61.79838 37915 ft 438 kts 267°
2026-05-05 12:21 41.36979 61.71741 37907 ft 438 kts 267°
2026-05-05 12:22 41.36625 61.63659 37906 ft 438 kts 267°
2026-05-05 12:22 41.36264 61.55562 37906 ft 438 kts 267°
2026-05-05 12:23 41.35898 61.47487 37911 ft 438 kts 267°
2026-05-05 12:23 41.35532 61.39503 37911 ft 438 kts 267°
2026-05-05 12:24 41.35158 61.31418 37910 ft 437 kts 266°
2026-05-05 12:24 41.34779 61.23342 37902 ft 437 kts 266°
2026-05-05 12:25 41.34394 61.15273 37906 ft 437 kts 266°
2026-05-05 12:25 41.34004 61.07212 37903 ft 437 kts 266°
2026-05-05 12:26 41.33608 60.99148 37896 ft 437 kts 266°
2026-05-05 12:26 41.33206 60.91085 37897 ft 437 kts 266°
2026-05-05 12:27 41.32799 60.83026 37902 ft 437 kts 266°
2026-05-05 12:27 41.32387 60.74966 37902 ft 436 kts 266°
2026-05-05 12:28 41.31969 60.66913 37898 ft 436 kts 266°
2026-05-05 12:28 41.31548 60.58911 37897 ft 436 kts 266°
2026-05-05 12:29 41.31119 60.50867 37893 ft 436 kts 266°
2026-05-05 12:29 41.30772 60.42805 37890 ft 437 kts 270°
2026-05-05 12:30 41.31061 60.34737 37889 ft 437 kts 272°
2026-05-05 12:30 41.31462 60.26681 37889 ft 437 kts 273°
2026-05-05 12:31 41.31870 60.18622 37887 ft 437 kts 272°
2026-05-05 12:31 41.32265 60.10569 37888 ft 436 kts 272°
2026-05-05 12:32 41.32651 60.02519 37888 ft 436 kts 272°
2026-05-05 12:32 41.33043 59.94461 37886 ft 436 kts 272°
2026-05-05 12:33 41.33429 59.86413 37886 ft 436 kts 272°
2026-05-05 12:33 41.33808 59.78366 37888 ft 436 kts 272°
2026-05-05 12:34 41.34181 59.70319 37887 ft 436 kts 272°
2026-05-05 12:34 41.33933 59.62298 37882 ft 434 kts 263°
2026-05-05 12:35 41.33224 59.54323 37886 ft 434 kts 262°
2026-05-05 12:35 41.32459 59.46366 37893 ft 434 kts 262°
2026-05-05 12:36 41.31691 59.38404 37875 ft 434 kts 262°
2026-05-05 12:36 41.30930 59.30450 37871 ft 433 kts 262°
2026-05-05 12:37 41.30167 59.22498 37869 ft 433 kts 262°
2026-05-05 12:37 41.29401 59.14563 37873 ft 433 kts 262°
2026-05-05 12:38 41.28627 59.06618 37866 ft 433 kts 262°
2026-05-05 12:38 41.27848 58.98688 37864 ft 433 kts 262°
2026-05-05 12:39 41.27064 58.90759 37866 ft 433 kts 262°
2026-05-05 12:39 41.26274 58.82820 37862 ft 433 kts 262°
2026-05-05 12:40 41.25479 58.74894 37858 ft 433 kts 262°
2026-05-05 12:40 41.24678 58.66968 37854 ft 433 kts 261°
2026-05-05 12:41 41.23873 58.59049 37860 ft 433 kts 261°
2026-05-05 12:41 41.23061 58.51128 37856 ft 433 kts 261°
2026-05-05 12:42 41.22244 58.43204 37847 ft 433 kts 261°
2026-05-05 12:42 41.21423 58.35299 37853 ft 433 kts 261°
2026-05-05 12:43 41.20596 58.27384 37841 ft 433 kts 261°
2026-05-05 12:43 41.19763 58.19470 37850 ft 432 kts 261°
2026-05-05 12:44 41.18926 58.11569 37840 ft 433 kts 261°
2026-05-05 12:44 41.18079 58.03662 37834 ft 433 kts 261°
2026-05-05 12:45 41.17231 57.95755 37833 ft 433 kts 261°
2026-05-05 12:45 41.16380 57.87855 37838 ft 433 kts 261°
2026-05-05 12:46 41.15522 57.79956 37832 ft 433 kts 261°
2026-05-05 12:46 41.14657 57.72050 37830 ft 433 kts 260°
2026-05-05 12:47 41.13793 57.64203 37831 ft 433 kts 260°
2026-05-05 12:47 41.12917 57.56302 37824 ft 433 kts 260°
2026-05-05 12:48 41.12037 57.48411 37818 ft 433 kts 260°
2026-05-05 12:48 41.11150 57.40514 37815 ft 433 kts 260°
2026-05-05 12:49 41.10258 57.32620 37813 ft 433 kts 260°
2026-05-05 12:49 41.09361 57.24734 37813 ft 433 kts 260°
2026-05-05 12:50 41.08458 57.16840 37811 ft 433 kts 260°
2026-05-05 12:50 41.07550 57.08954 37810 ft 433 kts 260°
2026-05-05 12:51 41.06637 57.01066 37807 ft 433 kts 259°
2026-05-05 12:51 41.05716 56.93171 37807 ft 433 kts 259°
2026-05-05 12:52 41.04792 56.85285 37804 ft 433 kts 259°
2026-05-05 12:52 41.04018 56.78723 37802 ft 433 kts 259°
2026-05-05 12:53 41.03077 56.70791 37805 ft 434 kts 259°
2026-05-05 12:53 41.02143 56.62953 37799 ft 433 kts 259°
2026-05-05 12:54 41.00791 56.51125 37797 ft 434 kts 263°
2026-05-05 12:55 41.00567 56.43124 37799 ft 435 kts 266°
2026-05-05 12:55 41.00475 56.35105 37799 ft 436 kts 266°
2026-05-05 12:56 41.00393 56.27086 37796 ft 435 kts 266°
2026-05-05 12:56 41.00296 56.19081 37799 ft 435 kts 266°
2026-05-05 12:57 41.00187 56.11079 37804 ft 434 kts 266°
2026-05-05 12:57 41.00072 56.03082 37807 ft 434 kts 266°
2026-05-05 12:58 40.99952 55.95105 37816 ft 434 kts 266°
2026-05-05 12:58 40.99825 55.87130 37811 ft 433 kts 266°
2026-05-05 12:59 40.99694 55.79158 37817 ft 433 kts 265°
2026-05-05 12:59 40.99560 55.71199 37833 ft 432 kts 266°
2026-05-05 13:00 40.99377 55.59271 37841 ft 432 kts 265°
2026-05-05 13:01 40.99109 55.43398 37842 ft 431 kts 265°
2026-05-05 13:01 40.98965 55.35479 37846 ft 430 kts 265°
2026-05-05 13:02 40.98815 55.27560 37859 ft 430 kts 265°
2026-05-05 13:02 40.98661 55.19639 37865 ft 430 kts 265°
2026-05-05 13:03 40.98502 55.11728 37873 ft 430 kts 265°
2026-05-05 13:03 40.98336 55.03822 37876 ft 430 kts 265°
2026-05-05 13:04 40.98165 54.95922 37887 ft 429 kts 265°
2026-05-05 13:04 40.97990 54.88024 37882 ft 430 kts 265°
2026-05-05 13:05 40.97809 54.80124 37890 ft 429 kts 265°
2026-05-05 13:05 40.97610 54.72226 37886 ft 429 kts 264°
2026-05-05 13:06 40.97407 54.64329 37889 ft 429 kts 264°
2026-05-05 13:06 40.97201 54.56432 37886 ft 429 kts 264°
2026-05-05 13:07 40.96991 54.48544 37894 ft 429 kts 264°
2026-05-05 13:07 40.96776 54.40649 37890 ft 429 kts 264°
2026-05-05 13:08 40.96556 54.32811 37896 ft 429 kts 264°
2026-05-05 13:08 40.96330 54.24928 37896 ft 429 kts 264°
2026-05-05 13:09 40.96098 54.17037 37896 ft 429 kts 264°
2026-05-05 13:09 40.95861 54.09156 37897 ft 429 kts 264°
2026-05-05 13:10 40.95619 54.01277 37899 ft 429 kts 264°
2026-05-05 13:10 40.95371 53.93386 37899 ft 429 kts 264°
2026-05-05 13:11 40.95118 53.85494 37905 ft 429 kts 263°
2026-05-05 13:11 40.94859 53.77612 37908 ft 429 kts 263°
2026-05-05 13:12 40.94595 53.69716 37905 ft 429 kts 263°
2026-05-05 13:12 40.94326 53.61836 37910 ft 429 kts 263°
2026-05-05 13:13 40.94051 53.53952 37912 ft 429 kts 263°
2026-05-05 13:13 40.93772 53.46082 37915 ft 428 kts 263°
2026-05-05 13:14 40.93487 53.38220 37915 ft 428 kts 263°
2026-05-05 13:14 40.93197 53.30351 37915 ft 428 kts 263°
2026-05-05 13:15 40.92902 53.22494 37916 ft 428 kts 263°
2026-05-05 13:15 40.92601 53.14632 37921 ft 428 kts 263°
2026-05-05 13:16 40.92295 53.06765 37922 ft 428 kts 262°
2026-05-05 13:16 40.91974 52.98919 37924 ft 428 kts 262°
2026-05-05 13:17 40.91647 52.91102 37926 ft 428 kts 262°
2026-05-05 13:17 40.91315 52.83244 37925 ft 428 kts 262°
2026-05-05 13:18 40.90978 52.75379 37924 ft 428 kts 262°
2026-05-05 13:18 40.90637 52.67522 37922 ft 428 kts 262°
2026-05-05 13:19 40.90121 52.59704 37926 ft 425 kts 256°
2026-05-05 13:19 40.89007 52.52050 37924 ft 424 kts 255°
2026-05-05 13:20 40.87805 52.44434 37923 ft 423 kts 254°
2026-05-05 13:20 40.86591 52.36819 37928 ft 423 kts 254°
2026-05-05 13:21 40.85381 52.29209 37926 ft 423 kts 254°
2026-05-05 13:21 40.84171 52.21599 37930 ft 423 kts 254°
2026-05-05 13:22 40.82958 52.13998 37928 ft 423 kts 254°
2026-05-05 13:22 40.81738 52.06393 37931 ft 423 kts 254°
2026-05-05 13:23 40.80514 51.98801 37932 ft 423 kts 254°
2026-05-05 13:23 40.79283 51.91196 37936 ft 424 kts 254°
2026-05-05 13:24 40.78047 51.83592 37940 ft 424 kts 253°
2026-05-05 13:24 40.76804 51.75982 37947 ft 424 kts 253°
2026-05-05 13:25 40.75557 51.68379 37933 ft 425 kts 253°
2026-05-05 13:25 40.74301 51.60759 37937 ft 425 kts 253°
2026-05-05 13:26 40.73043 51.53149 37938 ft 425 kts 253°
2026-05-05 13:26 40.72320 51.45366 37948 ft 430 kts 261°
2026-05-05 13:27 40.71981 51.37474 37939 ft 432 kts 262°
2026-05-05 13:27 40.71684 51.29563 37940 ft 432 kts 262°
2026-05-05 13:28 40.71374 51.21654 37940 ft 433 kts 262°
2026-05-05 13:28 40.71049 51.13784 37940 ft 433 kts 261°
2026-05-05 13:29 40.70713 51.05854 37939 ft 434 kts 261°
2026-05-05 13:29 40.70372 50.97913 37938 ft 434 kts 261°
2026-05-05 13:30 40.70025 50.89958 37938 ft 435 kts 261°
2026-05-05 13:30 40.69672 50.81992 37931 ft 436 kts 261°
2026-05-05 13:31 40.69313 50.74012 37928 ft 437 kts 261°
2026-05-05 13:31 40.68948 50.66011 37931 ft 437 kts 261°
2026-05-05 13:32 40.68576 50.58003 37924 ft 438 kts 261°
2026-05-05 13:32 40.68199 50.49991 37920 ft 439 kts 261°
2026-05-05 13:33 40.67817 50.41958 37924 ft 439 kts 261°
2026-05-05 13:33 40.67431 50.33918 37920 ft 440 kts 261°
2026-05-05 13:34 40.67031 50.25878 37911 ft 440 kts 261°
2026-05-05 13:34 40.66627 50.17832 37915 ft 441 kts 261°
2026-05-05 13:35 40.66218 50.09764 37920 ft 441 kts 261°
2026-05-05 13:35 40.65804 50.01703 37913 ft 442 kts 261°
2026-05-05 13:36 40.65383 49.93628 37937 ft 442 kts 261°
2026-05-05 13:36 40.64957 49.85544 37934 ft 443 kts 261°
2026-05-05 13:37 40.64597 49.78821 37928 ft 443 kts 261°
2026-05-05 13:37 40.64160 49.70732 37926 ft 443 kts 261°
2026-05-05 13:38 40.63716 49.62630 37922 ft 444 kts 261°
2026-05-05 13:38 40.63266 49.54518 37925 ft 444 kts 261°
2026-05-05 13:39 40.62810 49.46408 37925 ft 445 kts 261°
2026-05-05 13:39 40.62348 49.38278 37925 ft 445 kts 261°
2026-05-05 13:40 40.61880 49.30148 37922 ft 446 kts 261°
2026-05-05 13:40 40.61406 49.22016 37920 ft 446 kts 261°
2026-05-05 13:41 40.61011 49.13838 37918 ft 449 kts 263°
2026-05-05 13:41 40.60903 49.05616 37911 ft 450 kts 264°
2026-05-05 13:42 40.60814 48.97373 37908 ft 450 kts 264°
2026-05-05 13:42 40.60672 48.89140 37907 ft 450 kts 263°
2026-05-05 13:43 40.60500 48.80890 37903 ft 451 kts 263°
2026-05-05 13:43 40.60317 48.72639 37903 ft 451 kts 263°
2026-05-05 13:44 40.60129 48.64375 37894 ft 452 kts 263°
2026-05-05 13:44 40.59940 48.56107 37899 ft 452 kts 263°
2026-05-05 13:45 40.59742 48.47840 37896 ft 452 kts 263°
2026-05-05 13:45 40.59535 48.39563 37899 ft 452 kts 263°
2026-05-05 13:46 40.59329 48.31290 37898 ft 453 kts 263°
2026-05-05 13:46 40.59114 48.23016 37894 ft 452 kts 263°
2026-05-05 13:47 40.58893 48.14747 37897 ft 452 kts 263°
2026-05-05 13:47 40.58665 48.06466 37884 ft 453 kts 263°
2026-05-05 13:48 40.58427 47.98201 37894 ft 453 kts 263°
2026-05-05 13:48 40.58295 47.89908 37883 ft 455 kts 266°
2026-05-05 13:49 40.58629 47.81565 37881 ft 457 kts 268°
2026-05-05 13:49 40.59015 47.73264 37888 ft 457 kts 268°
2026-05-05 13:50 40.59323 47.64903 37882 ft 457 kts 267°
2026-05-05 13:50 40.59582 47.56545 37886 ft 457 kts 267°
2026-05-05 13:51 40.59827 47.48189 37881 ft 457 kts 267°
2026-05-05 13:51 40.60070 47.39823 37885 ft 457 kts 267°
2026-05-05 13:52 40.60309 47.31463 37884 ft 457 kts 267°
2026-05-05 13:52 40.60544 47.23092 37889 ft 457 kts 266°
2026-05-05 13:53 40.61056 47.14711 37886 ft 461 kts 271°
2026-05-05 13:53 40.61890 47.06338 37884 ft 462 kts 272°
2026-05-05 13:54 40.62758 46.97967 37885 ft 462 kts 272°
2026-05-05 13:54 40.63619 46.89591 37881 ft 462 kts 272°
2026-05-05 13:55 40.64467 46.81211 37876 ft 462 kts 272°
2026-05-05 13:55 40.65307 46.72819 37871 ft 462 kts 272°
2026-05-05 13:56 40.66141 46.64430 37867 ft 463 kts 271°
2026-05-05 13:56 40.66971 46.56022 37865 ft 463 kts 271°
2026-05-05 13:57 40.67794 46.47612 37864 ft 463 kts 271°
2026-05-05 13:57 40.68612 46.39187 37856 ft 464 kts 271°
2026-05-05 13:58 40.69425 46.30749 37855 ft 464 kts 271°
2026-05-05 13:58 40.70233 46.22305 37854 ft 465 kts 271°
2026-05-05 13:59 40.71435 46.09610 37862 ft 466 kts 271°
2026-05-05 14:00 40.72497 45.98316 37869 ft 466 kts 271°
2026-05-05 14:00 40.73408 45.88465 37874 ft 465 kts 271°
2026-05-05 14:01 40.74185 45.80001 37875 ft 465 kts 271°
2026-05-05 14:01 40.74955 45.71541 37881 ft 464 kts 271°
2026-05-05 14:02 40.75718 45.63099 37879 ft 464 kts 271°
2026-05-05 14:02 40.76474 45.54650 37871 ft 464 kts 271°
2026-05-05 14:03 40.77188 45.46194 37876 ft 463 kts 269°
2026-05-05 14:03 40.77565 45.37731 37867 ft 461 kts 268°
2026-05-05 14:04 40.77867 45.29271 37873 ft 462 kts 268°
2026-05-05 14:04 40.78214 45.20783 37872 ft 463 kts 268°
2026-05-05 14:05 40.78588 45.12284 37879 ft 464 kts 268°
2026-05-05 14:05 40.78968 45.03757 37874 ft 466 kts 269°
2026-05-05 14:06 40.79339 44.95209 37876 ft 467 kts 268°
2026-05-05 14:06 40.79694 44.86644 37870 ft 467 kts 269°
2026-05-05 14:07 40.80043 44.78080 37882 ft 468 kts 268°
2026-05-05 14:07 40.80389 44.69489 37878 ft 470 kts 268°
2026-05-05 14:08 40.80731 44.60862 37876 ft 471 kts 269°
2026-05-05 14:08 40.81073 44.52234 37879 ft 471 kts 269°
2026-05-05 14:09 40.81408 44.43587 37882 ft 471 kts 269°
2026-05-05 14:09 40.81727 44.34952 37879 ft 471 kts 269°
2026-05-05 14:10 40.82044 44.26306 37887 ft 472 kts 269°
2026-05-05 14:10 40.82354 44.17648 37908 ft 472 kts 269°
2026-05-05 14:11 40.82659 44.08985 37915 ft 473 kts 269°
2026-05-05 14:11 40.82960 44.00306 37924 ft 474 kts 269°
2026-05-05 14:12 40.83253 43.91611 37942 ft 474 kts 269°
2026-05-05 14:12 40.83540 43.82921 37943 ft 474 kts 269°
2026-05-05 14:13 40.83828 43.74205 37932 ft 475 kts 269°
2026-05-05 14:13 40.84128 43.65488 37917 ft 476 kts 270°
2026-05-05 14:14 40.84879 43.56783 37909 ft 478 kts 274°
2026-05-05 14:14 40.85785 43.48076 37897 ft 479 kts 274°
2026-05-05 14:15 40.86622 43.39350 37887 ft 479 kts 273°
2026-05-05 14:15 40.87399 43.30623 37890 ft 479 kts 272°
2026-05-05 14:16 40.88156 43.21885 37895 ft 479 kts 272°
2026-05-05 14:16 40.88909 43.13138 37900 ft 479 kts 272°
2026-05-05 14:17 40.89658 43.04392 37901 ft 479 kts 272°
2026-05-05 14:17 40.90402 42.95628 37882 ft 480 kts 272°
2026-05-05 14:18 40.91139 42.86868 37896 ft 480 kts 272°
2026-05-05 14:18 40.91871 42.78082 37885 ft 481 kts 272°
2026-05-05 14:19 40.92597 42.69297 37886 ft 481 kts 272°
2026-05-05 14:19 40.93319 42.60493 37876 ft 482 kts 272°
2026-05-05 14:20 40.93912 42.53169 37902 ft 482 kts 272°
2026-05-05 14:20 40.94621 42.44347 37888 ft 483 kts 272°
2026-05-05 14:21 40.95440 42.34075 37893 ft 483 kts 272°
2026-05-05 14:21 40.96023 42.26669 37895 ft 483 kts 272°
2026-05-05 14:22 40.96714 42.17824 37901 ft 483 kts 272°
2026-05-05 14:22 40.97392 42.09035 37912 ft 483 kts 272°
2026-05-05 14:23 40.98073 42.00123 37915 ft 484 kts 272°
2026-05-05 14:23 40.98740 41.91312 37924 ft 484 kts 272°
2026-05-05 14:24 40.99402 41.82451 37933 ft 484 kts 272°
2026-05-05 14:24 41.00058 41.73579 37936 ft 484 kts 272°
2026-05-05 14:25 41.00715 41.64710 37940 ft 485 kts 272°
2026-05-05 14:25 41.01363 41.55822 37942 ft 485 kts 272°
2026-05-05 14:26 41.02000 41.46926 37952 ft 486 kts 272°
2026-05-05 14:26 41.02631 41.38025 37955 ft 486 kts 272°
2026-05-05 14:27 41.03259 41.29107 37966 ft 487 kts 272°
2026-05-05 14:27 41.03878 41.20193 37983 ft 487 kts 272°
2026-05-05 14:28 41.04493 41.11261 38004 ft 487 kts 272°
2026-05-05 14:28 41.05100 41.02330 38018 ft 487 kts 272°
2026-05-05 14:29 41.05696 40.93401 38019 ft 487 kts 272°
2026-05-05 14:29 41.06287 40.84462 38017 ft 487 kts 272°
2026-05-05 14:30 41.06875 40.75514 38021 ft 488 kts 272°
2026-05-05 14:30 41.07460 40.66556 38019 ft 488 kts 272°
2026-05-05 14:31 41.08035 40.57581 38022 ft 488 kts 272°
2026-05-05 14:31 41.08599 40.48606 38019 ft 489 kts 272°
2026-05-05 14:32 41.09158 40.39621 38016 ft 489 kts 272°
2026-05-05 14:32 41.09712 40.30627 38018 ft 490 kts 272°
2026-05-05 14:33 41.10260 40.21618 38023 ft 490 kts 272°
2026-05-05 14:33 41.10801 40.12605 38021 ft 491 kts 272°
2026-05-05 14:34 41.11336 40.03580 38025 ft 491 kts 272°
2026-05-05 14:34 41.11863 39.94540 38019 ft 491 kts 271°
2026-05-05 14:35 41.12385 39.85501 38020 ft 492 kts 271°
2026-05-05 14:35 41.12901 39.76443 38021 ft 493 kts 271°
2026-05-05 14:36 41.13410 39.67374 38022 ft 493 kts 272°
2026-05-05 14:36 41.13911 39.58307 38018 ft 493 kts 271°
2026-05-05 14:37 41.14406 39.49226 38023 ft 493 kts 271°
2026-05-05 14:37 41.14893 39.40154 38020 ft 493 kts 271°
2026-05-05 14:38 41.15374 39.31071 38024 ft 493 kts 271°
2026-05-05 14:38 41.15847 39.21996 38023 ft 493 kts 271°
2026-05-05 14:39 41.16313 39.12928 38024 ft 493 kts 271°
2026-05-05 14:39 41.16771 39.03861 38023 ft 492 kts 271°
2026-05-05 14:40 41.17222 38.94798 38024 ft 492 kts 271°
2026-05-05 14:40 41.17665 38.85745 38020 ft 492 kts 271°
2026-05-05 14:41 41.18101 38.76681 38019 ft 492 kts 271°
2026-05-05 14:41 41.18530 38.67625 38022 ft 492 kts 271°
2026-05-05 14:42 41.18952 38.58561 38021 ft 492 kts 271°
2026-05-05 14:42 41.19367 38.49499 38019 ft 492 kts 271°
2026-05-05 14:43 41.19775 38.40430 38019 ft 492 kts 271°
2026-05-05 14:43 41.20174 38.31417 38022 ft 493 kts 271°
2026-05-05 14:44 41.20568 38.22333 38023 ft 493 kts 271°
2026-05-05 14:44 41.20955 38.13248 38019 ft 493 kts 271°
2026-05-05 14:45 41.21336 38.04155 38023 ft 493 kts 271°
2026-05-05 14:45 41.21710 37.95046 38029 ft 494 kts 271°
2026-05-05 14:46 41.22076 37.85941 38024 ft 494 kts 271°
2026-05-05 14:46 41.22436 37.76823 38027 ft 494 kts 271°
2026-05-05 14:47 41.22789 37.67705 38029 ft 494 kts 271°
2026-05-05 14:47 41.23135 37.58582 38029 ft 495 kts 271°
2026-05-05 14:48 41.23473 37.49461 38027 ft 495 kts 271°
2026-05-05 14:48 41.23804 37.40325 38024 ft 495 kts 271°
2026-05-05 14:49 41.24129 37.31175 38025 ft 496 kts 271°
2026-05-05 14:49 41.24447 37.22029 38023 ft 496 kts 271°
2026-05-05 14:50 41.24758 37.12866 38017 ft 496 kts 271°
2026-05-05 14:50 41.25061 37.03711 38024 ft 496 kts 271°
2026-05-05 14:51 41.25357 36.94552 38016 ft 496 kts 271°
2026-05-05 14:51 41.25646 36.85388 38019 ft 496 kts 271°
2026-05-05 14:52 41.25927 36.76226 38022 ft 496 kts 271°
2026-05-05 14:52 41.26202 36.67061 38020 ft 496 kts 271°
2026-05-05 14:53 41.26475 36.57897 38021 ft 496 kts 272°
2026-05-05 14:53 41.27488 36.48814 38023 ft 497 kts 280°
2026-05-05 14:54 41.28860 36.39815 38018 ft 497 kts 281°
2026-05-05 14:54 41.30277 36.30812 38020 ft 497 kts 281°
2026-05-05 14:55 41.31675 36.21816 38014 ft 497 kts 281°
2026-05-05 14:55 41.33054 36.12815 38006 ft 496 kts 281°
2026-05-05 14:56 41.34419 36.03830 38001 ft 495 kts 281°
2026-05-05 14:56 41.35775 35.94848 37997 ft 495 kts 281°
2026-05-05 14:57 41.37123 35.85872 37995 ft 494 kts 281°
2026-05-05 14:57 41.38464 35.76902 37991 ft 494 kts 281°
2026-05-05 14:58 41.39799 35.67920 37988 ft 494 kts 281°
2026-05-05 14:58 41.41124 35.58957 37985 ft 494 kts 281°
2026-05-05 14:59 41.42442 35.49985 37987 ft 493 kts 281°
2026-05-05 14:59 41.43754 35.41008 37988 ft 493 kts 281°
2026-05-05 15:00 41.44840 35.33541 37982 ft 493 kts 281°
2026-05-05 15:00 41.46347 35.23108 37985 ft 493 kts 281°
2026-05-05 15:01 41.47638 35.14122 37982 ft 493 kts 281°
2026-05-05 15:01 41.48921 35.05143 37987 ft 493 kts 281°
2026-05-05 15:02 41.50197 34.96156 37980 ft 493 kts 281°
2026-05-05 15:02 41.51467 34.87159 37980 ft 493 kts 281°
2026-05-05 15:03 41.52730 34.78155 37977 ft 494 kts 281°
2026-05-05 15:03 41.53986 34.69149 37978 ft 493 kts 281°
2026-05-05 15:04 41.55235 34.60144 37979 ft 493 kts 281°
2026-05-05 15:04 41.56266 34.52664 37990 ft 493 kts 281°
2026-05-05 15:05 41.58319 34.37649 37989 ft 492 kts 281°
2026-05-05 15:06 41.59334 34.30177 37995 ft 492 kts 281°
2026-05-05 15:06 41.60548 34.21185 37993 ft 491 kts 281°
2026-05-05 15:07 41.61754 34.12199 37996 ft 491 kts 282°
2026-05-05 15:07 41.62950 34.03228 37999 ft 490 kts 282°
2026-05-05 15:08 41.64139 33.94251 38003 ft 490 kts 282°
2026-05-05 15:08 41.65320 33.85281 38010 ft 490 kts 282°
2026-05-05 15:09 41.66493 33.76319 38012 ft 490 kts 282°
2026-05-05 15:09 41.67661 33.67342 38006 ft 489 kts 282°
2026-05-05 15:10 41.68818 33.58380 38015 ft 489 kts 282°
2026-05-05 15:10 41.69969 33.49414 38023 ft 489 kts 282°
2026-05-05 15:11 41.71114 33.40451 38022 ft 489 kts 282°
2026-05-05 15:11 41.72251 33.31482 38023 ft 489 kts 282°
2026-05-05 15:12 41.73381 33.22505 38028 ft 489 kts 282°
2026-05-05 15:12 41.74504 33.13537 38025 ft 488 kts 282°
2026-05-05 15:13 41.75617 33.04568 38031 ft 488 kts 282°
2026-05-05 15:13 41.76725 32.95599 38030 ft 488 kts 282°
2026-05-05 15:14 41.77827 32.86617 38033 ft 488 kts 282°
2026-05-05 15:14 41.78920 32.77649 38034 ft 488 kts 282°
2026-05-05 15:15 41.80006 32.68679 38034 ft 488 kts 282°
2026-05-05 15:15 41.81085 32.59706 38037 ft 488 kts 282°
2026-05-05 15:16 41.82156 32.50732 38032 ft 487 kts 282°
2026-05-05 15:16 41.83219 32.41764 38035 ft 487 kts 282°
2026-05-05 15:17 41.84277 32.32782 38034 ft 487 kts 282°
2026-05-05 15:17 41.85327 32.23806 38034 ft 487 kts 282°
2026-05-05 15:18 41.86362 32.14886 38035 ft 488 kts 282°
2026-05-05 15:18 41.87399 32.05897 38032 ft 488 kts 282°
2026-05-05 15:19 41.88437 31.96828 38035 ft 488 kts 281°
2026-05-05 15:19 41.89454 31.87886 38034 ft 488 kts 281°
2026-05-05 15:20 41.90470 31.78876 38039 ft 488 kts 281°
2026-05-05 15:20 41.91480 31.69868 38036 ft 488 kts 281°
2026-05-05 15:21 41.92483 31.60848 38034 ft 488 kts 281°
2026-05-05 15:21 41.93478 31.51830 38035 ft 488 kts 281°
2026-05-05 15:22 41.94466 31.42817 38037 ft 488 kts 281°
2026-05-05 15:22 41.95445 31.33810 38038 ft 487 kts 281°
2026-05-05 15:23 41.96418 31.24799 38041 ft 487 kts 281°
2026-05-05 15:23 41.97381 31.15809 38041 ft 486 kts 281°
2026-05-05 15:24 41.98338 31.06806 38045 ft 486 kts 281°
2026-05-05 15:24 41.99285 30.97826 38043 ft 485 kts 281°
2026-05-05 15:25 42.00206 30.89033 38047 ft 485 kts 281°
2026-05-05 15:25 42.01138 30.80064 38047 ft 484 kts 280°
2026-05-05 15:26 42.02063 30.71095 38050 ft 484 kts 280°
2026-05-05 15:26 42.02980 30.62131 38052 ft 484 kts 280°
2026-05-05 15:27 42.03889 30.53169 38056 ft 483 kts 280°
2026-05-05 15:27 42.04780 30.44321 38052 ft 483 kts 280°